GFSSGP_250_spd_000.txt.gz
Wind_Speed
74 76 76 77 78 79 74 76 79 85 86 85 90 94 95 101 103 108 112 115 115 118 118 120 119 121 125 129 123 120 113 113 110 105 110 106 101 94 92 86 78 75 75 75 70 69 69 68 65
82 78 79 84 78 77 81 82 85 86 94 104 105 103 100 107 110 112 116 115 119 124 126 127 131 127 121 118 116 117 110 105 108 101 95 90 83 77 72 72 67 64 65 62 56 58 58 57 54
83 83 84 76 82 83 84 88 93 97 101 103 104 105 109 114 115 115 116 120 129 134 126 133 127 123 119 114 109 106 94 89 82 82 78 74 70 64 59 61 57 59 57 59 56 55 55 55 52
85 85 86 92 88 86 87 90 95 98 105 105 107 110 115 115 121 130 128 126 138 135 127 128 116 116 109 99 88 77 75 72 63 61 59 55 54 54 54 54 54 51 52 51 48 48 47 50 48
86 90 91 89 90 91 90 95 100 104 102 106 111 115 116 124 132 133 134 130 137 126 121 113 107 85 69 66 62 57 54 50 45 44 44 45 43 42 42 41 40 41 45 45 46 45 45 46 47
95 92 93 97 97 96 95 99 99 102 109 110 113 116 124 127 135 131 125 116 121 106 93 82 65 60 55 52 49 46 38 33 33 33 32 33 34 33 31 31 31 33 35 38 40 41 43 43 48
99 101 102 100 103 102 105 106 107 109 111 117 115 119 119 128 129 119 107 102 85 72 59 54 51 48 44 42 36 28 24 23 22 24 24 23 24 27 28 27 25 25 26 27 33 37 40 41 47
103 102 102 104 105 106 111 114 120 119 116 122 127 127 123 110 108 101 83 67 54 49 42 39 33 22 20 15 11 9 10 10 10 11 13 12 13 14 17 21 22 23 24 24 26 30 38 43 46
107 116 107 103 107 108 110 110 115 121 125 119 116 101 104 94 81 61 51 42 35 20 14 8 9 9 8 7 7 7 12 12 12 13 13 12 14 12 12 14 16 16 19 22 24 27 30 38 46
109 112 106 110 111 113 111 112 118 119 114 103 89 87 67 59 49 34 32 18 13 6 7 11 13 16 16 19 18 19 20 20 19 21 20 21 21 19 17 17 16 17 12 9 14 24 29 31 35
114 110 97 100 101 106 105 89 98 99 91 75 58 54 43 37 20 14 13 11 11 10 12 15 17 16 17 17 17 17 17 16 21 23 20 20 20 18 17 18 22 23 20 17 12 10 14 20 32
95 95 96 88 84 84 85 80 72 59 52 42 29 25 19 9 6 8 9 10 12 12 16 20 20 18 21 25 24 23 21 20 23 25 28 27 25 25 25 26 27 27 27 24 22 19 17 18 17
90 89 87 80 80 76 67 47 37 34 27 18 11 8 4 4 2 5 7 11 12 13 15 18 21 23 24 26 27 27 27 27 27 28 29 31 29 29 29 30 30 29 29 29 24 23 24 20 18
86 75 65 65 65 45 33 24 17 16 13 7 9 7 4 7 8 5 6 12 15 17 19 20 22 23 23 24 25 27 29 28 28 29 29 30 30 30 29 30 31 31 32 33 32 34 34 31 28
59 42 44 35 35 18 14 11 14 11 8 7 6 8 10 12 14 15 15 20 25 26 28 27 27 27 29 29 28 29 30 30 31 33 34 35 37 37 37 37 38 38 39 39 40 39 40 40 38
26 20 22 19 15 14 14 12 10 9 8 8 9 12 15 19 19 20 18 19 24 26 27 25 25 28 31 32 33 33 34 34 37 39 41 42 41 42 43 43 42 41 42 42 42 42 43 44 45
14 11 12 13 17 18 17 14 14 12 14 16 17 20 21 22 22 24 25 27 31 34 34 34 36 37 39 41 41 43 45 47 49 49 49 48 45 46 47 48 50 51 52 53 53 52 51 52 53
11 14 15 16 22 20 17 16 16 18 20 22 24 28 28 28 31 33 34 34 38 42 43 42 42 43 45 46 48 49 52 54 53 52 51 53 53 55 56 57 59 60 61 62 62 63 64 63 62
14 15 17 20 20 24 21 20 22 24 25 27 29 34 37 36 38 39 43 45 43 47 47 46 47 49 51 53 55 55 57 60 62 61 61 59 60 62 63 64 67 68 67 68 70 71 72 72 73
17 17 16 16 19 21 22 24 25 28 29 29 31 35 37 40 41 42 43 44 47 51 54 53 52 54 55 58 59 58 58 59 63 65 68 68 68 69 70 72 74 76 79 80 81 81 82 82 84
13 13 15 18 23 24 25 29 30 31 32 34 37 40 41 42 42 49 47 48 50 53 56 59 58 60 62 59 60 61 63 65 68 71 73 75 77 78 80 83 85 89 93 94 95 97 97 96 94
16 19 20 23 23 25 28 29 30 30 32 34 34 35 37 41 45 48 54 52 53 55 58 58 61 60 62 62 63 66 70 71 73 76 79 82 86 89 93 95 97 100 103 105 105 105 103 103 100
21 24 25 27 28 30 30 28 27 26 29 31 33 36 41 43 48 55 53 53 54 56 57 58 59 62 65 70 72 73 75 78 81 86 89 91 93 97 101 106 108 108 108 108 107 107 107 103 101
23 25 29 31 32 28 26 26 27 26 28 31 36 37 40 48 53 51 50 52 55 57 60 62 66 69 74 76 79 83 88 92 94 97 99 102 103 106 109 111 111 110 110 110 108 104 101 95 94
25 25 25 25 23 25 26 28 31 33 34 38 43 47 49 50 51 50 52 55 58 60 62 66 71 75 80 84 87 90 93 96 100 103 103 105 106 107 109 111 110 106 107 107 103 98 94 87 84
26 26 25 23 24 25 26 32 37 39 38 41 42 41 42 47 51 54 56 59 61 64 68 72 77 82 84 87 91 95 98 101 102 105 109 109 111 112 111 109 107 105 102 98 97 93 85 79 75
26 26 27 28 29 32 39 46 46 42 41 40 43 45 49 53 56 58 60 62 66 70 75 79 82 86 89 91 95 98 103 107 110 113 115 113 114 116 112 110 106 99 94 91 89 84 80 75 73
27 30 32 32 33 37 44 54 47 37 42 49 52 54 53 55 59 63 66 69 73 78 83 85 87 88 92 95 98 102 108 110 115 115 115 116 112 112 111 106 98 93 87 84 82 81 78 75 74
31 33 34 36 39 42 33 48 44 49 53 54 54 55 60 62 66 72 75 79 82 84 84 84 90 96 97 103 107 112 116 119 122 120 118 116 112 111 104 99 94 90 87 83 81 79 77 74 76
35 37 38 39 39 38 37 46 50 51 50 51 55 58 63 68 72 76 78 77 77 81 86 90 97 101 108 111 115 120 125 128 128 124 123 118 113 107 100 96 93 89 85 83 81 78 76 76 77

GFSSGP_250_spd_003.txt.gz
Wind_Speed
73 75 74 74 77 76 80 76 79 81 83 83 87 83 80 84 89 96 100 106 107 111 112 115 119 127 127 128 131 128 128 117 116 114 111 100 93 92 87 84 88 86 81 81 77 67 62 62 62
81 76 77 76 80 78 78 77 79 82 84 86 91 92 91 90 94 100 104 106 110 111 113 118 122 123 131 128 123 121 116 114 103 95 88 83 76 74 71 71 68 67 65 64 62 59 56 53 53
82 77 81 85 83 80 82 87 85 87 89 91 87 91 95 97 99 100 102 109 110 116 121 125 126 122 126 123 117 102 93 77 74 72 69 68 67 60 60 56 57 56 55 55 53 52 49 48 47
86 87 86 84 82 86 88 86 89 87 90 91 92 97 98 103 105 108 114 116 117 124 127 122 128 121 114 97 81 65 64 61 60 57 52 52 50 44 43 37 37 39 39 40 42 42 41 44 49
88 90 87 86 87 88 86 90 91 94 91 92 100 105 106 109 112 118 119 124 125 127 120 119 110 100 82 66 63 54 50 48 45 41 39 38 35 33 31 30 30 30 29 30 30 32 35 36 39
90 88 86 88 88 90 91 93 95 96 99 101 107 106 109 105 110 117 120 121 124 114 98 84 77 70 60 49 45 39 34 32 31 29 29 28 26 25 25 23 23 24 25 23 23 24 27 28 32
92 91 92 91 94 95 96 99 100 101 104 104 115 111 114 114 119 120 113 111 103 102 73 64 53 47 39 35 30 27 26 22 22 23 22 21 20 19 16 16 17 19 20 21 22 20 20 22 27
95 96 95 93 98 97 101 102 103 99 105 109 112 115 108 107 103 101 92 95 77 58 44 43 37 41 31 28 26 20 18 19 19 22 21 21 20 17 15 16 16 18 18 17 17 17 18 17 20
99 99 98 101 101 104 105 107 106 114 110 105 102 95 96 97 89 86 69 63 49 42 35 26 25 22 22 21 22 22 22 23 25 26 27 27 25 26 24 23 20 22 23 20 19 19 21 20 19
99 102 101 96 103 104 105 101 104 99 102 93 91 91 94 90 75 51 40 35 30 21 19 19 22 20 20 21 20 20 20 20 22 25 26 27 25 25 25 25 25 25 23 23 20 17 18 19 22
99 107 103 101 100 106 107 108 109 102 87 86 84 77 66 47 38 37 27 21 14 15 15 17 17 16 17 19 18 20 20 22 23 23 24 25 26 27 26 26 25 26 25 24 22 20 18 16 17
96 93 86 90 92 88 89 92 86 83 62 52 51 46 49 29 22 10 10 9 9 9 10 11 16 17 17 19 22 21 22 21 20 21 23 25 26 27 28 27 26 25 26 26 25 25 23 21 23
93 87 94 94 90 85 81 78 71 55 51 43 34 26 27 17 11 12 13 9 7 11 13 21 24 24 24 26 27 26 26 26 28 29 28 29 29 32 34 34 33 33 32 31 31 29 27 27 30
90 90 88 82 79 81 74 53 46 34 24 22 12 13 15 16 18 17 15 15 17 21 27 29 28 27 28 30 31 32 34 35 36 37 38 40 41 41 40 39 39 38 38 37 35 34 35 34 34
65 72 76 57 57 50 49 33 24 18 15 13 16 15 17 17 19 22 22 23 24 23 30 33 32 33 34 34 34 36 38 42 43 44 44 46 45 45 46 45 43 41 41 42 43 42 42 41 41
54 56 38 42 30 26 23 17 15 12 13 17 18 17 20 24 27 28 28 29 28 29 29 31 32 36 36 38 41 42 45 47 47 47 48 48 47 46 46 47 46 47 48 50 51 51 51 52 52
33 28 25 23 20 18 17 15 13 15 19 21 22 25 26 29 30 32 33 34 36 35 35 39 40 43 46 49 45 45 48 49 49 47 47 47 48 50 52 53 53 54 55 56 58 59 59 61 62
15 15 15 17 17 14 15 17 18 22 23 25 27 30 33 35 37 36 39 38 39 42 45 44 46 47 46 48 50 49 51 52 55 53 54 55 56 57 59 60 61 62 62 64 65 68 71 71 70
14 15 17 19 18 19 22 25 26 25 26 26 27 28 30 35 36 40 41 41 42 45 48 47 48 50 50 52 51 53 57 58 60 60 62 63 65 69 67 67 65 65 67 69 71 73 75 77 80
11 15 17 19 19 21 23 28 29 31 32 32 32 31 32 35 36 38 40 40 44 48 47 48 51 50 52 53 56 59 62 64 65 64 65 66 67 69 70 74 77 79 81 83 85 88 89 88 89
10 14 17 18 19 16 18 23 26 29 29 27 29 32 34 37 40 41 42 42 46 49 47 48 51 53 57 59 61 62 63 64 67 68 70 71 73 76 79 81 81 86 90 93 96 98 99 99 99
17 18 19 20 21 21 23 25 30 26 25 26 28 32 37 40 41 41 44 48 52 53 52 56 59 60 60 61 64 66 69 70 72 72 73 78 82 83 86 88 89 91 95 96 98 100 101 103 100
23 21 22 23 23 24 27 30 28 27 26 27 32 39 43 44 45 49 50 50 50 52 57 59 61 61 63 67 71 74 76 76 77 81 84 87 88 90 94 96 97 95 98 103 101 99 99 102 103
23 23 24 25 26 27 25 22 25 25 26 30 38 43 46 48 45 44 45 50 54 56 58 59 61 67 71 75 79 81 81 82 84 87 87 89 94 97 99 100 103 104 108 111 104 100 101 102 102
24 25 24 23 26 24 21 22 26 29 32 38 41 44 43 41 45 48 50 51 53 56 61 65 70 74 78 79 79 80 81 86 91 94 96 99 101 103 105 109 111 113 114 113 104 102 100 100 99
25 26 25 24 23 23 25 27 32 37 41 40 40 39 45 48 49 51 52 55 58 62 67 70 73 74 76 81 84 88 92 94 98 103 108 109 112 113 116 116 117 117 112 106 99 96 97 95 93
29 28 27 25 25 29 34 36 39 41 37 38 43 47 49 50 50 53 57 59 62 65 68 69 73 77 82 86 91 96 102 105 109 111 115 122 123 122 119 116 113 109 105 100 94 89 87 87 87
27 27 27 27 29 33 39 44 37 33 35 44 48 47 48 52 57 59 60 61 66 73 74 77 80 84 89 95 100 104 108 113 118 123 126 130 129 122 117 115 110 103 97 92 89 84 82 80 80
24 26 27 30 34 35 33 49 37 39 46 48 49 51 55 59 60 61 66 66 74 77 80 85 88 92 97 102 107 110 117 123 130 131 131 131 123 117 112 105 100 97 94 92 90 86 82 79 78
18 22 26 26 25 30 31 40 42 44 45 48 52 55 58 60 61 64 69 74 78 82 88 93 93 98 103 107 111 119 125 131 136 133 127 117 113 109 103 99 96 95 95 93 89 84 80 75 73

GFSSGP_250_spd_009.txt.gz
Wind_Speed
76 76 78 76 72 75 74 74 74 75 75 74 75 76 78 81 86 92 94 97 101 97 100 99 103 106 107 114 117 116 115 119 114 110 109 115 109 96 86 77 75 75 69 63 62 61 58 57 55
82 80 81 81 80 79 76 76 78 76 77 80 81 83 84 89 92 94 94 97 99 101 105 106 107 109 112 115 114 110 105 101 100 102 101 91 81 65 57 52 52 48 43 42 42 43 43 45 47
85 86 83 83 87 87 83 82 80 81 80 79 82 84 88 94 92 95 97 101 104 106 107 108 110 112 109 105 107 98 101 96 89 87 69 57 55 44 32 26 23 22 23 26 29 31 33 34 34
87 84 87 86 89 88 86 89 89 90 88 89 86 87 90 94 97 99 100 104 105 106 112 111 112 105 102 101 100 98 87 83 76 60 45 30 25 18 15 18 18 21 22 23 24 22 23 25 26
85 87 88 88 89 89 92 91 88 89 89 92 94 94 95 99 100 102 104 106 108 110 109 110 109 95 94 93 89 83 77 52 41 21 24 21 17 20 21 25 27 29 30 30 30 29 25 22 24
86 86 89 90 90 91 92 90 91 92 92 94 93 96 101 103 105 106 108 111 112 107 101 97 90 91 90 93 67 46 27 21 24 19 17 18 19 21 24 25 28 28 29 32 34 35 31 30 28
89 91 91 89 92 92 92 93 95 97 95 99 100 99 100 106 107 106 109 104 93 91 86 89 89 85 77 57 32 17 17 18 17 17 18 19 21 23 24 25 26 28 28 27 29 29 30 31 31
86 89 88 87 89 89 87 90 95 97 98 95 94 97 102 107 108 104 100 87 84 84 84 80 75 58 42 25 20 17 17 19 19 20 21 23 24 22 21 23 26 27 27 26 26 26 27 27 28
95 94 95 94 93 94 93 95 97 100 97 94 93 87 91 92 86 85 86 87 80 75 71 57 38 29 21 19 18 18 19 21 22 22 23 24 25 26 27 28 29 30 29 28 27 25 24 26 26
93 96 95 91 95 97 98 99 97 94 97 98 103 107 105 93 85 84 81 73 68 59 40 30 24 22 20 21 23 25 26 25 26 27 28 29 29 30 31 33 33 34 32 31 29 27 27 27 26
95 93 94 97 93 94 96 98 96 97 97 97 96 96 96 84 76 75 62 63 40 30 26 23 24 22 21 22 22 24 26 28 29 31 33 35 36 37 37 36 37 37 36 35 34 31 28 28 28
88 86 86 87 93 91 92 92 94 93 89 81 77 76 75 71 64 63 43 31 26 26 26 26 27 27 27 30 31 31 33 35 36 38 38 40 42 43 43 42 40 41 40 38 36 34 34 30 29
73 81 83 87 91 87 86 91 84 88 85 77 80 75 54 53 46 33 27 25 28 27 29 29 31 31 33 38 40 38 41 42 44 45 44 45 46 46 46 46 45 46 43 41 39 38 39 39 37
73 80 80 78 80 72 78 79 81 82 81 67 63 60 43 36 27 24 26 27 29 30 31 33 35 38 40 43 43 46 48 47 48 46 45 45 45 47 47 48 49 47 47 46 46 46 46 46 46
57 62 70 71 68 83 78 68 67 70 67 53 48 38 31 26 27 26 26 30 29 34 34 38 42 42 43 45 45 44 47 49 50 49 46 46 47 49 49 49 51 52 52 53 53 54 54 54 54
49 50 52 57 55 53 54 52 53 60 49 42 34 28 25 27 28 29 29 32 35 38 40 41 43 44 43 44 44 44 47 48 45 46 48 50 51 53 53 54 55 56 58 59 60 60 60 60 59
44 42 42 41 41 42 41 41 37 31 33 30 26 27 28 31 32 34 36 38 40 38 40 38 41 41 42 45 45 49 50 47 48 50 53 54 55 55 56 59 60 61 62 65 65 65 63 62 64
31 30 25 23 24 26 28 27 26 25 23 24 26 29 30 35 37 39 40 39 36 36 38 40 40 42 45 47 50 48 48 51 54 55 55 55 57 59 62 64 66 67 66 65 67 68 69 69 72
21 20 18 17 19 21 22 22 23 25 25 26 29 32 34 35 35 36 36 35 35 39 42 46 46 50 48 45 47 52 54 55 56 56 58 61 65 67 67 68 68 69 70 69 71 74 74 75 77
16 15 14 16 17 19 21 24 26 28 29 31 34 35 34 35 33 33 33 35 41 47 49 47 43 46 49 51 53 56 57 59 63 65 66 66 69 73 75 74 76 78 79 83 85 86 84 85 87
15 16 17 18 19 23 25 26 27 30 29 29 30 33 35 34 34 32 36 42 46 47 41 46 51 51 53 53 55 59 61 64 68 71 71 74 74 74 75 78 80 82 86 87 88 89 91 91 93
19 20 21 21 20 21 26 29 31 30 32 31 33 34 34 34 34 36 41 46 46 44 51 54 55 55 55 59 61 64 65 67 69 69 70 77 80 83 87 89 91 95 97 97 97 100 100 105 104
23 24 24 24 25 26 26 32 24 32 33 32 31 33 35 37 39 43 48 48 45 52 56 56 56 58 63 66 67 66 68 74 75 77 79 84 89 91 93 97 101 103 104 105 108 110 112 113 115
26 26 26 28 30 30 30 34 24 30 28 30 32 34 37 41 44 47 49 48 51 58 59 60 63 64 67 67 67 72 76 79 82 85 90 94 98 101 105 108 112 114 117 117 120 121 123 121 121
27 29 31 31 31 30 33 35 29 34 34 30 32 36 39 43 47 47 48 50 57 59 62 65 67 68 67 68 76 80 83 87 91 94 98 102 106 109 112 116 120 123 126 127 129 129 128 126 122
21 24 29 32 34 34 36 36 30 32 33 37 40 43 43 45 47 49 52 57 59 61 63 68 70 70 72 76 82 86 91 94 97 102 105 111 114 117 122 125 127 132 136 134 133 131 127 122 112
16 18 20 26 30 35 37 37 30 38 38 42 42 43 43 45 50 54 58 61 63 65 69 70 72 76 79 83 88 92 95 98 104 107 112 116 121 127 132 136 140 141 135 132 128 118 109 103 99
11 14 17 19 23 27 31 37 30 37 37 37 39 42 46 48 53 58 62 65 66 67 71 74 78 83 87 90 94 100 102 106 110 115 120 126 131 134 139 139 137 130 122 118 111 105 102 99 98
16 18 18 18 21 23 28 37 32 35 38 41 43 45 48 54 56 59 64 66 69 73 77 81 85 89 93 96 102 105 109 114 118 124 129 133 137 140 138 134 124 116 110 108 106 103 101 97 93
20 21 23 27 29 33 34 41 39 39 38 42 45 50 51 55 58 63 66 68 71 76 82 86 90 94 100 103 107 112 116 122 128 131 136 139 139 134 123 114 110 110 108 105 103 99 94 89 84

GFSSGP_250_spd_012.txt.gz
Wind_Speed
80 75 74 76 75 75 76 75 70 67 68 72 75 78 73 75 75 77 79 84 87 90 95 94 96 101 106 109 110 113 115 117 118 114 103 104 112 113 108 96 80 68 62 59 59 60 60 56 56
82 84 75 73 76 81 81 77 78 77 78 78 80 79 76 82 82 85 86 89 90 97 96 97 105 109 113 113 116 119 121 120 107 95 102 101 98 89 79 55 44 39 34 32 28 27 28 31 34
89 86 84 84 83 80 79 76 78 79 81 80 80 81 82 83 84 87 92 92 94 100 100 106 111 113 113 115 119 118 109 101 95 100 95 85 64 47 40 25 15 14 16 17 22 20 21 21 22
87 84 87 88 91 90 87 81 80 83 86 88 89 87 90 87 92 93 97 98 98 103 106 110 113 113 115 117 116 106 88 94 96 86 71 45 38 31 22 15 16 19 23 24 25 26 26 24 27
76 79 83 89 91 90 90 83 82 87 88 87 89 87 89 91 93 95 94 99 105 108 111 112 111 116 112 103 97 96 94 83 71 55 36 26 15 13 14 19 22 25 27 30 31 31 29 29 27
81 76 78 87 85 86 87 86 87 86 91 92 93 94 95 96 97 98 100 102 108 110 110 112 106 98 95 90 87 87 76 59 39 24 20 18 20 19 19 24 27 30 31 31 32 32 32 32 33
88 84 76 83 74 79 85 88 90 90 92 92 90 95 97 100 101 100 102 108 109 105 97 94 92 90 90 82 72 67 45 32 23 19 21 22 24 24 24 28 31 33 33 33 33 31 31 30 28
85 85 78 73 78 78 84 84 89 90 92 92 93 94 97 98 98 100 103 108 109 108 111 116 91 76 72 71 55 39 25 22 21 21 20 23 25 29 31 32 34 35 35 34 32 30 29 31 30
82 89 87 83 82 79 84 88 86 89 89 90 87 91 96 97 99 104 106 105 103 96 86 79 73 69 62 44 34 25 24 25 26 26 25 28 29 30 35 34 36 36 37 36 33 33 30 28 26
83 89 85 88 93 90 87 88 91 88 88 88 92 96 97 101 104 98 95 93 88 80 73 66 58 51 42 33 30 28 31 31 32 33 31 33 36 38 39 41 39 37 38 39 37 34 31 31 27
95 94 91 86 91 93 93 92 90 89 90 92 93 89 94 98 96 97 84 80 77 69 63 48 42 37 32 32 33 35 36 37 38 39 40 41 42 44 42 42 41 42 42 39 37 36 35 32 31
92 91 97 94 89 88 86 89 93 89 86 87 89 87 85 87 79 77 78 73 60 50 40 36 31 32 32 36 36 38 39 41 47 51 48 48 48 45 47 47 46 46 46 44 44 41 40 39 38
92 91 95 95 92 88 85 85 86 81 82 84 84 85 86 78 77 70 66 54 39 35 33 34 35 36 37 41 41 44 45 47 51 49 49 51 50 51 49 49 49 49 48 48 47 45 45 43 42
78 80 82 84 87 89 86 82 83 84 80 80 80 75 73 70 73 57 51 35 32 30 32 35 40 43 45 47 48 50 50 52 51 49 50 51 51 51 50 49 48 49 50 50 51 51 51 50 50
68 73 79 84 86 87 84 75 73 76 78 69 71 70 55 62 45 40 33 30 30 33 31 40 45 51 48 49 51 49 50 51 49 50 53 54 48 50 51 53 52 52 51 51 53 55 57 58 58
55 55 56 60 62 67 77 82 75 69 59 52 53 41 38 41 31 29 30 31 32 35 34 15 46 56 51 49 49 48 47 50 52 54 50 53 54 56 56 55 55 55 56 59 61 61 61 59 59
46 48 49 51 53 55 57 56 55 45 48 36 34 36 33 31 27 25 33 36 36 38 35 35 44 48 48 45 47 49 52 54 53 53 54 59 57 59 59 60 61 61 59 60 61 61 62 62 65
39 42 45 46 47 46 44 40 36 33 31 27 26 27 26 28 27 30 34 38 36 37 36 36 40 46 45 49 49 49 50 54 56 58 55 61 61 63 63 65 67 66 66 65 66 65 67 69 70
37 39 40 38 38 36 32 27 24 24 24 24 26 27 30 29 31 32 38 35 35 36 37 42 44 51 47 46 52 58 57 56 55 59 61 66 66 67 67 68 69 70 71 73 75 77 76 79 82
31 30 27 27 26 26 25 23 24 25 24 25 27 31 33 33 33 36 38 40 37 40 43 45 48 51 51 55 57 58 59 60 62 65 67 65 66 69 72 73 72 75 79 82 83 84 84 85 88
24 24 24 25 26 27 27 26 25 26 26 27 31 35 37 37 38 40 40 41 41 45 48 50 52 52 58 59 59 63 65 67 69 70 70 68 73 76 79 82 84 85 88 92 92 95 97 94 96
22 23 23 25 27 24 29 30 25 30 30 31 35 36 37 38 42 40 42 45 48 51 53 54 54 56 64 66 63 65 69 70 73 73 73 78 81 84 86 89 93 95 96 99 101 103 106 105 106
23 23 24 25 26 26 30 35 24 28 33 33 37 37 39 39 38 39 43 46 49 53 56 57 58 62 67 68 69 71 71 71 75 77 80 85 90 93 97 101 102 104 106 110 112 113 116 118 122
24 24 26 27 29 31 34 38 29 31 30 33 40 38 39 40 39 43 46 48 52 56 57 59 66 69 68 69 74 75 78 83 86 89 91 94 98 102 107 109 111 115 118 121 123 125 126 129 130
23 26 28 30 32 35 37 40 31 35 38 29 34 37 41 41 45 47 51 53 49 55 61 65 70 72 74 73 74 80 85 89 91 94 99 102 106 111 114 118 122 124 127 130 132 134 137 135 131
10 14 18 22 27 29 37 42 32 36 42 35 34 35 38 44 49 51 51 51 55 57 59 63 69 74 76 79 80 83 88 93 96 102 106 110 115 120 124 127 131 135 136 137 137 136 131 123 116
11 10 12 14 17 22 28 29 27 32 38 40 40 42 44 46 46 49 52 55 59 60 63 68 72 77 81 84 88 91 95 99 104 113 116 120 126 130 133 137 140 141 134 130 127 123 117 111 110
16 18 20 21 23 25 26 30 25 27 30 33 40 44 46 48 49 51 54 56 61 63 67 75 79 81 85 90 95 98 102 106 114 120 125 131 134 136 139 141 138 134 127 121 117 112 112 107 105
17 20 23 23 26 28 31 39 34 36 35 38 41 42 44 49 51 53 57 61 64 70 76 81 84 86 91 94 98 105 112 119 126 131 135 136 134 137 134 128 123 118 113 111 109 107 105 102 98
17 19 21 26 29 31 35 42 39 41 42 42 45 48 52 54 54 58 63 67 70 74 79 83 86 90 95 101 107 114 121 129 135 135 136 133 132 128 124 121 118 118 115 112 108 105 101 93 87

GFSSGP_250_spd_015.txt.gz
Wind_Speed
80 78 79 78 80 79 74 75 77 78 82 83 75 74 78 75 73 69 72 75 79 79 83 88 91 94 95 95 99 105 109 111 111 110 109 115 111 97 95 92 90 77 67 53 41 38 34 36 35
84 84 83 84 86 84 76 70 69 73 81 82 78 74 75 78 82 78 79 84 84 85 90 94 96 97 97 101 109 111 117 116 113 110 109 95 92 92 89 75 56 35 21 23 18 20 21 20 19
85 82 87 87 88 86 85 78 69 73 76 77 76 73 75 80 84 82 82 88 90 92 93 93 96 97 102 108 112 113 119 117 110 101 96 93 84 77 61 47 31 21 12 14 22 24 23 25 26
86 85 86 87 85 86 82 81 82 79 80 74 75 73 75 80 81 81 82 87 91 92 94 98 103 108 108 110 110 116 115 115 109 101 85 78 66 49 33 23 20 15 15 20 25 24 23 22 22
85 83 87 82 81 83 86 80 82 88 90 82 76 75 82 84 85 88 92 92 95 96 97 103 108 107 107 110 111 113 111 109 90 82 67 57 44 30 25 22 22 22 23 27 28 30 28 26 25
89 94 83 82 90 90 87 88 93 87 87 82 78 81 82 89 91 90 94 93 96 101 102 105 103 104 104 106 109 106 90 72 70 59 49 37 28 25 23 23 26 27 30 33 32 31 27 28 29
89 91 92 86 82 83 83 84 84 84 83 86 81 83 88 90 90 91 94 94 97 100 101 100 100 102 107 108 88 84 74 61 52 42 35 27 30 28 26 28 30 30 34 36 34 33 32 30 26
103 86 87 86 79 80 83 78 78 77 79 78 84 87 89 91 88 91 93 95 97 99 97 101 103 101 96 82 74 60 56 46 38 32 31 31 31 32 31 34 36 37 39 41 40 37 35 32 30
96 101 95 87 79 81 83 84 81 80 75 75 80 78 86 86 88 89 90 91 93 96 95 94 92 87 81 66 57 53 44 42 38 37 37 37 38 38 39 40 42 44 45 45 43 39 36 35 32
81 90 91 78 78 77 80 77 79 70 71 74 77 80 87 87 89 88 91 93 95 92 93 92 85 72 71 61 51 45 38 39 41 39 41 45 45 45 50 46 47 48 47 47 46 43 40 36 34
81 87 90 89 89 84 82 80 79 80 82 81 85 89 86 89 91 90 88 91 93 94 90 83 72 59 55 53 42 38 36 41 46 46 47 47 48 49 50 50 47 49 50 49 48 44 41 40 39
77 78 83 88 90 83 84 87 87 88 87 86 90 94 95 88 91 92 88 86 87 84 78 65 56 49 43 45 44 47 47 45 50 54 54 56 55 53 54 51 49 49 48 48 46 47 46 45 42
74 71 73 77 76 78 83 87 92 95 92 87 86 87 85 86 89 91 87 79 74 65 59 47 41 35 44 53 47 44 48 50 50 54 57 58 56 54 52 52 52 49 49 51 52 52 52 51 47
74 75 73 74 74 76 84 87 86 87 88 87 80 83 88 84 78 79 77 74 61 44 37 31 28 35 40 45 43 46 52 54 54 56 55 55 54 55 54 51 49 51 53 54 54 53 52 51 49
76 74 71 78 82 85 87 86 87 86 86 87 89 88 87 80 68 72 70 51 46 32 34 25 24 24 32 49 46 54 58 53 45 48 53 58 54 53 52 53 55 55 56 57 57 55 54 52 52
68 70 76 76 78 79 80 83 84 84 83 82 81 78 77 77 68 52 46 39 35 32 33 29 36 41 39 53 49 52 54 52 55 49 48 56 61 59 59 58 58 61 61 59 61 59 58 58 59
48 54 61 71 76 71 66 65 62 60 59 59 60 59 55 51 45 38 43 38 34 33 35 29 29 43 46 47 54 54 58 58 52 53 57 55 58 60 61 63 66 65 64 62 63 65 67 66 65
43 44 44 50 53 54 52 51 49 49 49 51 50 48 41 35 35 34 38 40 37 33 31 31 33 38 40 49 54 57 55 52 56 60 61 61 62 65 68 68 68 68 65 66 70 71 72 72 73
39 38 37 42 40 40 41 39 43 44 42 44 44 39 36 32 34 33 36 37 35 37 35 36 41 43 46 50 56 60 58 59 60 65 63 62 63 66 70 72 73 71 73 77 79 79 79 81 84
29 31 32 33 33 35 38 36 41 40 38 37 35 35 34 34 35 35 34 34 38 42 46 43 45 50 53 57 59 59 62 64 68 68 67 68 71 72 71 73 76 78 79 83 86 87 88 90 95
32 31 28 30 31 33 35 34 31 34 33 32 35 35 34 35 35 37 37 39 40 41 46 50 52 54 56 58 57 61 65 68 70 71 73 75 77 79 82 84 85 86 88 91 93 97 100 102 105
24 23 25 26 28 30 34 29 30 32 35 31 34 37 37 36 37 43 41 39 41 46 49 51 55 60 60 57 60 63 66 70 74 76 78 81 84 88 92 94 96 98 101 104 108 112 114 115 114
22 20 23 25 28 30 36 32 28 29 27 33 37 34 37 37 38 40 43 46 49 52 54 57 59 61 60 61 65 66 72 76 79 82 85 87 91 95 99 101 104 108 112 116 122 124 125 124 124
22 24 24 25 27 31 33 35 32 26 27 30 36 39 45 42 42 38 38 44 51 56 59 60 59 61 61 65 67 70 77 83 87 90 92 95 100 104 108 110 113 118 122 126 130 129 127 125 123
13 16 19 23 26 29 31 35 31 31 31 31 32 36 38 39 38 38 41 44 48 53 56 60 63 67 69 71 71 76 81 85 89 93 97 101 107 111 114 119 126 131 133 135 135 131 127 121 117
4 6 9 11 16 22 24 26 29 28 28 26 29 31 34 38 41 44 44 47 49 50 54 58 61 67 73 78 82 86 90 93 98 102 107 110 114 118 124 131 134 134 136 134 129 125 119 112 108
10 11 13 15 18 22 19 22 23 27 28 29 29 33 35 41 39 44 45 49 53 57 58 61 66 71 76 81 86 92 97 101 104 109 115 118 122 127 133 138 138 134 128 124 120 116 112 108 107
12 13 16 18 22 28 29 25 31 31 33 35 35 36 41 45 47 47 50 54 57 59 63 67 72 78 82 86 91 97 102 106 110 114 120 126 130 131 136 137 132 126 120 117 111 109 107 105 103
12 16 16 16 20 25 35 31 31 35 36 39 42 43 46 48 51 53 55 56 59 63 66 72 78 82 85 92 98 103 106 110 117 123 130 134 136 137 136 133 126 120 114 110 107 104 101 95 89
15 17 19 24 25 28 34 43 36 37 39 40 42 43 47 48 53 56 57 60 63 67 71 75 81 87 92 97 102 107 113 119 125 130 137 135 130 127 124 123 118 115 111 107 102 97 92 87 81

GFSSGP_250_spd_018.txt.gz
Wind_Speed
89 89 87 86 85 85 82 78 77 79 77 75 72 74 77 79 80 81 82 82 83 84 85 84 84 87 88 88 91 94 97 102 101 104 106 107 109 112 113 107 94 79 85 66 45 25 24 22 22
84 88 88 87 84 83 78 73 74 78 76 75 74 74 74 76 76 78 79 82 80 79 81 83 85 86 87 91 96 99 100 101 102 108 107 107 110 112 100 81 83 75 60 39 23 20 25 23 24
80 82 82 86 86 78 74 81 82 77 79 79 80 80 79 75 74 76 77 75 75 78 81 84 86 91 94 97 100 101 101 105 106 106 107 109 108 91 73 77 63 46 34 26 25 25 29 26 24
87 82 88 84 84 82 84 85 79 81 78 78 77 82 85 76 74 75 75 75 79 83 87 89 94 93 97 99 102 105 105 104 103 105 106 104 77 70 62 56 42 33 32 31 31 31 32 33 34
93 88 89 84 87 85 84 82 74 77 75 72 74 75 77 79 82 85 85 85 88 89 89 89 92 94 96 102 102 104 103 104 102 102 89 76 66 58 50 41 37 34 37 35 33 36 37 37 38
95 90 87 80 79 82 85 83 78 78 76 74 76 87 84 85 83 80 77 80 78 80 85 90 94 96 98 97 96 99 99 98 95 83 70 64 57 50 42 39 36 35 37 37 39 40 42 42 41
102 100 91 83 85 82 81 83 78 78 81 71 86 87 80 84 86 84 82 80 81 85 87 95 93 95 93 96 98 99 100 95 80 65 57 53 49 40 38 36 36 39 40 41 44 47 47 48 44
87 94 94 85 81 85 84 84 83 76 73 82 84 82 84 83 83 85 84 79 84 90 92 92 95 93 95 95 93 99 95 82 59 53 51 48 43 42 42 43 43 45 51 51 52 51 51 49 44
74 80 84 87 87 86 84 87 83 82 83 88 90 89 85 86 87 85 85 85 86 87 88 90 94 94 96 96 97 90 73 60 54 52 47 45 45 43 42 45 46 47 52 52 50 48 47 46 44
66 62 62 83 87 88 89 83 82 88 88 87 85 83 86 86 89 83 83 83 84 88 88 90 92 94 96 87 82 63 54 48 50 49 48 46 47 50 54 51 52 53 53 53 49 47 44 44 43
63 58 63 62 72 85 79 89 83 86 87 82 82 81 84 85 80 79 82 83 89 90 91 93 89 79 79 70 59 48 44 47 48 50 49 47 51 52 54 55 55 53 50 50 50 47 44 44 46
69 63 64 64 62 74 81 76 64 77 88 93 74 74 79 79 81 83 84 87 88 85 81 71 71 69 62 62 51 42 42 47 46 49 46 47 53 54 53 50 48 49 51 52 50 46 48 48 48
71 69 66 65 69 79 76 72 72 69 71 79 78 76 78 81 83 83 84 85 87 89 82 67 68 57 55 47 45 38 38 43 44 50 52 56 56 51 50 49 50 51 49 48 49 51 51 51 51
70 77 66 70 69 72 75 74 75 75 76 73 76 78 82 81 81 82 86 86 84 69 72 66 56 48 43 42 45 50 50 39 44 49 55 58 54 56 52 47 52 53 51 51 52 52 53 57 57
63 72 69 72 67 70 75 74 71 75 73 70 73 77 77 82 84 83 81 81 83 58 54 52 47 43 44 47 47 48 54 54 49 58 60 63 63 59 54 54 54 55 54 53 54 58 59 58 59
53 58 65 69 73 65 67 73 76 76 74 76 78 82 87 87 86 81 82 69 55 45 42 40 44 50 49 46 50 53 54 54 49 54 60 63 62 61 60 61 62 61 61 60 61 62 63 63 63
42 45 54 65 68 67 68 71 73 76 80 79 79 79 75 68 62 56 54 52 46 45 41 36 38 50 52 49 55 62 59 53 57 60 62 62 60 62 64 66 67 65 67 68 68 68 66 66 67
38 41 48 52 52 55 61 67 71 71 72 77 73 61 51 49 47 44 42 47 46 42 37 39 45 50 49 50 53 56 57 60 61 66 68 64 63 64 67 69 69 69 71 74 75 75 75 74 76
36 41 44 42 43 44 46 49 53 48 45 44 41 44 45 45 43 39 42 43 44 39 37 43 48 52 51 50 53 57 60 63 66 67 65 65 66 67 69 72 74 76 78 79 81 82 83 84 85
35 39 41 39 40 38 34 36 39 37 36 40 41 41 41 40 40 38 40 42 45 42 45 46 47 49 50 53 57 62 65 68 71 67 67 70 71 74 76 79 82 84 85 87 88 90 91 93 94
29 31 31 31 34 36 35 34 37 36 34 34 36 39 41 40 40 40 41 42 43 44 45 47 48 51 53 57 61 65 69 70 69 71 73 77 80 82 85 88 90 90 90 92 94 97 99 101 104
23 27 32 33 31 31 29 26 27 28 30 32 34 35 38 37 37 39 41 42 43 44 46 50 52 54 57 61 64 66 68 70 72 75 80 83 86 90 93 94 96 99 101 103 106 108 111 113 115
20 21 22 24 25 27 26 26 24 28 32 34 34 36 40 42 42 46 44 44 44 46 50 53 54 56 60 62 63 65 67 70 75 81 86 92 96 98 101 104 107 109 112 114 118 121 125 128 129
17 19 22 25 27 28 27 24 21 29 32 32 36 39 40 41 45 48 50 51 50 53 53 53 54 58 59 60 64 67 71 76 80 86 91 95 100 103 107 110 114 118 122 127 131 134 135 134 132
14 16 16 17 18 13 13 14 14 17 20 25 29 30 29 31 36 42 44 44 48 51 54 56 56 57 61 64 67 72 76 80 85 89 94 99 105 110 114 117 120 124 129 136 139 137 133 129 125
3 1 3 6 8 8 11 14 17 17 19 19 23 26 29 35 40 41 39 44 47 52 56 60 62 65 68 71 74 78 81 85 90 95 100 105 111 116 121 124 128 132 136 133 130 130 127 124 118
3 6 8 10 12 13 14 18 20 24 26 26 27 31 34 37 41 43 45 48 51 55 57 59 64 66 69 72 75 79 84 90 94 100 107 112 117 122 126 130 131 131 129 128 130 125 119 114 107
6 8 10 13 15 14 15 18 20 23 25 29 31 34 38 40 41 45 48 49 52 55 59 62 64 67 71 75 80 85 92 97 103 109 114 117 121 128 129 131 128 128 125 121 119 115 109 104 100
12 14 15 18 21 24 22 24 27 29 33 35 35 36 39 42 44 45 47 51 55 58 60 62 67 72 76 81 86 91 98 104 110 115 118 123 127 127 125 123 123 122 118 113 109 102 98 94 91
16 16 20 22 22 29 32 32 35 38 38 40 43 45 46 47 49 50 52 55 56 59 63 66 71 76 81 86 92 99 104 108 115 120 125 129 126 124 123 123 120 114 108 103 98 93 89 84 79

GFSSGP_250_spd_021.txt.gz
Wind_Speed
99 96 91 87 89 90 86 87 82 81 79 79 76 77 82 85 84 83 83 82 85 81 81 83 83 85 84 86 86 85 85 88 91 100 102 103 106 105 104 102 103 103 98 86 81 73 60 49 43
94 98 95 87 86 91 87 85 86 82 80 79 80 83 83 84 85 83 82 80 79 80 83 78 79 83 83 83 85 88 92 95 101 101 102 105 103 102 103 103 103 99 86 69 67 55 49 42 36
93 95 97 89 85 89 83 81 78 76 75 73 75 75 79 80 82 83 84 85 85 83 81 80 80 80 82 88 94 96 98 98 102 104 103 105 103 101 102 102 94 78 70 60 57 46 45 43 45
91 90 97 94 90 81 81 78 76 71 66 66 76 80 90 87 82 82 85 84 85 86 86 86 88 91 93 95 95 94 96 97 98 101 103 103 100 100 101 95 82 65 56 53 47 44 45 43 40
86 89 89 95 87 78 77 80 77 76 77 73 76 77 86 85 86 83 82 85 83 86 88 90 89 91 90 89 89 91 93 97 102 102 101 99 100 99 89 77 62 55 47 46 44 43 42 44 46
78 85 86 87 93 90 73 81 80 78 74 77 76 76 73 70 66 71 74 77 80 83 85 85 90 92 92 89 89 93 95 97 96 95 95 99 90 81 74 62 54 47 45 44 44 46 47 52 50
71 79 79 81 91 91 73 74 77 80 83 85 85 78 76 77 78 79 83 88 90 90 88 88 87 88 90 89 91 92 95 95 96 99 99 86 77 61 53 51 47 47 44 46 48 49 50 52 53
69 72 72 79 85 97 92 84 79 77 80 84 84 81 82 80 81 85 85 84 82 83 83 87 88 86 89 93 90 88 93 96 97 92 83 69 63 52 50 49 48 48 47 52 53 53 54 54 53
61 63 58 61 77 80 89 87 77 86 83 84 84 83 86 86 84 83 84 86 81 85 87 88 92 88 90 85 90 93 94 87 80 74 69 59 53 52 50 51 48 47 52 53 55 54 53 51 48
53 54 60 59 57 58 74 61 81 80 79 81 81 80 82 83 84 84 84 85 85 85 86 87 88 88 89 92 92 90 81 83 71 62 55 52 52 52 51 49 47 51 57 52 50 46 46 48 49
54 55 59 65 60 63 65 61 58 64 79 79 78 82 85 84 83 83 85 84 85 82 84 86 83 88 91 90 89 89 90 69 55 54 52 53 50 48 48 47 51 57 54 53 53 50 51 50 49
50 56 60 62 65 68 67 63 68 72 75 77 78 83 77 87 93 91 90 79 84 87 85 87 86 89 90 91 82 75 65 56 52 57 55 51 52 49 53 50 51 57 56 56 50 51 52 51 51
46 52 59 58 60 64 70 69 63 56 57 60 62 75 75 75 74 77 84 87 84 85 83 85 88 89 85 78 73 57 50 53 55 57 58 60 60 57 57 56 61 62 60 56 54 53 54 55 55
51 59 62 63 61 61 56 63 66 68 68 72 76 73 68 74 70 70 74 78 81 81 84 87 86 84 74 61 55 54 52 55 60 57 58 62 62 61 62 61 57 58 59 58 57 56 58 58 58
57 58 61 60 67 49 55 54 59 63 64 66 72 74 74 72 74 75 81 80 81 87 86 88 78 59 54 55 53 53 54 58 59 56 56 62 63 64 60 63 62 62 62 61 61 62 62 62 63
44 53 57 60 64 60 58 59 61 62 65 66 69 71 73 72 73 80 83 80 85 85 73 62 50 48 49 52 58 58 57 58 60 63 64 68 71 68 69 70 69 69 63 63 64 65 65 65 66
44 46 49 57 67 66 66 67 68 67 69 69 67 67 71 77 81 80 79 73 67 52 51 44 41 46 52 55 63 65 62 63 62 62 64 63 64 69 71 71 73 72 70 70 70 70 70 70 71
36 40 42 43 50 56 61 65 69 70 70 70 68 68 64 61 61 60 57 51 48 51 46 37 42 49 56 64 66 67 67 67 69 65 65 66 68 70 73 75 74 72 73 74 77 78 80 79 79
38 38 37 37 36 36 41 44 45 53 59 58 56 53 47 44 45 47 48 48 49 49 37 40 48 55 60 66 66 69 70 69 68 67 69 71 73 75 75 73 75 74 77 79 80 81 84 88 89
31 31 31 31 32 36 40 42 41 40 39 40 39 41 43 44 44 45 48 49 47 41 46 46 52 57 61 63 66 69 69 69 70 72 74 75 75 75 77 77 78 79 82 86 89 89 90 92 95
28 29 29 29 30 33 32 31 34 35 37 40 40 38 37 36 37 40 43 47 50 52 55 55 56 59 58 61 65 66 68 69 71 73 74 76 79 81 81 83 86 88 90 93 96 98 100 102 105
23 25 25 24 25 27 24 30 33 32 32 33 34 31 32 35 36 39 44 48 51 51 52 51 53 55 57 59 63 66 68 70 72 74 78 80 81 83 87 89 92 97 102 103 107 111 114 115 116
21 22 24 25 23 21 21 20 23 27 29 29 32 35 37 38 40 45 50 51 51 50 50 54 54 55 58 61 65 68 71 73 76 79 80 82 86 89 93 100 103 107 109 113 116 119 120 120 123
19 20 21 22 21 19 19 20 22 25 26 29 31 34 35 34 37 42 45 45 43 41 47 52 54 57 60 63 65 68 72 74 78 80 83 88 91 96 100 105 109 113 117 119 123 125 126 125 124
17 17 16 12 8 6 5 6 10 12 16 20 24 28 31 34 38 42 44 44 44 44 50 53 56 59 62 65 68 71 74 77 80 83 87 92 96 100 104 109 113 117 123 127 128 128 126 125 123
7 4 2 1 5 8 8 9 11 14 16 21 25 28 31 35 39 43 47 50 51 51 54 56 58 62 66 68 71 73 76 79 82 87 91 96 101 106 111 116 121 124 128 128 127 126 124 125 123
5 2 2 5 8 11 13 16 16 17 21 24 27 30 32 35 38 40 43 45 48 52 55 57 60 63 66 69 71 74 78 82 87 91 97 103 108 113 117 122 125 128 129 128 123 122 123 120 117
1 5 8 10 12 15 17 18 21 23 25 27 30 32 34 36 38 42 45 48 50 53 55 59 62 65 67 68 72 76 81 86 91 96 103 109 114 119 123 128 128 126 123 121 121 120 118 111 106
8 11 12 14 16 19 22 23 24 27 30 33 36 38 41 42 44 46 48 50 53 56 59 60 63 65 68 71 75 79 83 88 94 102 108 113 119 125 126 129 126 121 118 117 116 112 105 99 94
11 13 15 16 17 20 22 26 29 31 34 37 40 42 45 47 49 51 52 54 55 57 60 62 64 66 69 74 79 84 89 95 103 110 115 121 127 127 127 122 119 115 115 111 106 100 95 89 83

GFSSGP_250_spd_024.txt.gz
Wind_Speed
97 93 88 89 90 89 86 87 86 83 81 82 81 81 81 83 81 79 83 86 84 80 81 82 85 88 88 88 90 91 92 91 95 96 92 98 101 99 95 99 100 99 96 95 98 94 84 79 67
102 96 90 91 91 90 88 88 86 82 84 83 83 84 83 85 85 85 86 87 88 86 86 88 93 92 91 92 93 92 92 94 96 95 95 100 98 98 101 100 99 98 98 96 97 88 77 63 54
95 96 92 93 90 87 88 88 86 83 81 78 79 80 82 85 87 86 84 83 84 84 89 91 90 90 89 91 92 92 94 95 95 96 98 96 96 100 102 100 97 98 94 93 86 79 64 55 50
92 88 93 90 87 83 84 86 83 83 81 80 79 80 77 78 75 78 81 82 84 85 87 88 89 88 88 92 96 95 96 97 95 94 95 97 97 97 98 97 100 92 90 82 75 64 58 50 49
84 87 86 84 82 81 79 83 87 82 82 77 75 76 83 79 72 73 77 78 80 82 85 87 88 90 95 92 90 94 90 91 92 96 94 95 96 97 98 98 95 83 76 77 70 56 52 50 48
79 79 74 81 79 78 80 82 86 84 77 80 80 77 74 76 78 80 82 83 82 83 86 91 94 95 91 89 90 89 89 92 88 90 93 91 96 99 95 89 81 79 67 61 55 49 48 49 52
68 69 65 75 75 78 78 75 78 76 75 77 79 81 81 84 82 78 76 76 77 77 80 84 84 82 80 83 87 88 92 93 95 96 93 98 99 98 92 79 72 71 65 58 57 50 48 53 54
60 62 63 69 71 72 68 75 78 81 77 77 74 72 73 75 75 75 73 73 76 75 78 77 80 84 82 85 88 88 86 88 95 95 95 96 92 84 81 68 63 61 58 55 51 50 52 49 47
53 54 56 60 62 67 67 72 76 87 86 80 75 76 75 78 78 79 81 82 80 82 82 84 81 83 87 87 91 88 91 97 96 92 93 88 80 72 69 64 59 59 55 53 50 51 51 47 51
47 47 50 54 52 50 60 66 73 72 76 76 81 73 77 79 81 81 81 81 82 82 82 83 85 88 90 88 84 89 87 94 93 86 84 76 72 67 62 64 60 56 55 56 52 52 53 53 53
42 44 49 49 53 54 43 46 57 65 75 75 79 74 74 75 78 82 84 82 83 85 87 88 87 85 89 86 87 88 87 91 82 79 70 69 70 65 66 63 59 59 57 59 59 55 57 52 52
38 41 43 50 52 49 50 54 51 53 58 56 62 78 64 64 79 78 78 81 85 82 80 79 87 90 84 83 88 91 84 80 72 68 66 64 63 64 61 65 64 65 60 58 57 55 57 58 56
36 39 41 44 43 48 57 55 56 55 57 57 56 55 56 67 74 82 78 76 74 81 76 76 77 77 82 83 79 76 71 62 66 68 66 65 66 66 66 65 64 65 64 66 63 61 64 64 60
35 39 41 44 47 48 59 60 60 61 59 60 61 65 61 61 63 64 67 67 69 79 82 84 85 83 83 80 76 69 68 68 70 67 66 66 65 64 65 65 67 68 70 68 66 68 69 68 66
35 37 41 42 45 47 54 56 56 54 59 61 56 60 63 64 69 75 73 71 74 74 81 79 83 86 84 75 66 62 65 74 67 63 65 66 66 66 67 67 69 70 69 65 67 70 71 72 69
33 34 40 41 44 48 53 50 55 57 58 58 60 61 64 68 68 69 71 71 75 77 79 80 71 70 62 60 53 50 60 65 65 68 69 69 69 70 72 74 72 70 69 69 72 74 75 73 69
34 31 32 38 47 50 52 55 56 54 52 59 59 60 63 65 66 68 73 77 76 68 66 64 55 51 43 52 57 53 60 69 73 70 71 72 74 76 77 76 73 73 74 76 78 80 77 75 74
30 31 35 36 40 45 49 52 53 57 61 61 63 64 64 69 69 70 68 68 60 56 57 49 45 37 33 63 57 65 68 71 72 74 75 77 79 78 75 75 76 77 79 81 81 80 80 78 78
31 30 31 37 41 44 44 47 48 48 52 53 56 54 58 63 61 58 52 49 49 49 48 42 38 37 63 63 66 69 72 74 78 79 80 79 79 77 77 77 78 80 81 80 82 84 85 87 87
30 30 28 31 34 36 36 37 38 39 40 42 43 45 47 43 43 43 43 43 41 34 32 42 44 49 55 61 64 70 74 78 79 80 80 80 80 79 79 80 80 81 84 86 87 87 89 92 93
27 24 25 28 30 29 31 32 33 35 37 39 39 40 39 39 38 38 38 40 42 46 49 53 56 59 63 65 68 70 72 73 74 76 78 79 80 81 81 83 86 88 89 90 91 93 94 97 102
23 23 24 24 24 24 25 28 29 31 34 36 37 37 33 33 35 37 39 42 44 46 49 54 58 60 62 65 65 66 69 72 73 74 77 79 82 85 87 88 90 92 93 96 98 100 105 108 112
20 19 18 18 17 18 21 22 25 27 30 29 29 32 35 36 36 36 38 38 37 38 41 44 47 52 57 58 60 64 67 71 73 76 80 82 84 86 88 90 91 96 98 103 106 110 115 118 121
15 16 15 14 13 16 21 24 30 31 31 29 29 28 24 25 27 30 34 37 39 41 44 48 52 55 58 60 62 65 68 70 73 76 79 81 83 86 90 94 98 101 105 109 113 118 122 126 130
14 12 11 13 14 14 16 16 18 17 17 19 21 23 26 29 31 33 36 39 41 44 48 52 55 58 61 63 64 66 69 71 74 76 79 83 87 91 95 97 102 108 113 118 123 124 126 127 127
13 11 10 9 8 8 9 12 14 16 18 21 24 26 28 30 33 37 40 43 46 48 50 53 56 59 60 62 64 67 70 72 75 78 82 87 90 95 101 106 112 118 121 124 126 127 123 122 122
10 10 7 6 5 6 8 12 15 18 21 24 27 30 33 37 40 42 44 46 49 52 55 58 61 62 64 66 69 72 74 75 78 81 85 90 96 102 108 113 116 117 120 121 121 120 116 115 115
8 5 3 5 8 11 14 17 20 24 28 29 30 33 36 39 42 45 48 51 54 56 58 62 64 65 66 68 70 71 72 75 79 84 91 98 104 107 110 111 114 116 117 115 114 113 111 110 109
3 5 7 9 11 13 17 20 20 22 25 29 34 38 41 44 47 49 52 54 57 59 60 62 62 63 64 65 67 70 73 78 84 90 97 102 107 110 111 113 115 115 115 114 110 109 106 102 97
7 10 12 12 14 16 19 21 24 27 30 34 38 42 45 48 51 51 53 54 54 57 59 60 61 62 63 65 68 73 79 86 92 99 106 110 114 116 117 115 114 116 112 109 105 100 96 92 89

GFSSGP_250_spd_027.txt.gz
Wind_Speed
101 100 96 98 94 92 90 90 84 84 84 82 82 84 81 83 79 78 81 83 83 84 83 81 84 83 82 82 84 87 90 89 91 90 91 89 94 95 92 91 90 92 95 96 93 90 98 96 86
100 100 98 97 92 90 91 87 86 83 83 83 81 82 83 83 78 80 82 83 85 86 86 85 85 86 85 87 91 91 91 92 93 90 88 94 95 91 89 90 93 94 95 89 96 97 92 82 81
98 99 97 95 91 91 88 86 86 84 80 82 80 81 82 82 83 83 85 87 89 90 90 91 90 92 91 90 92 92 95 92 92 92 93 90 90 89 88 92 95 97 97 99 98 92 87 80 75
91 92 94 93 92 91 87 85 85 81 79 80 80 81 76 80 82 79 80 81 81 83 83 83 87 89 89 91 93 94 90 90 92 92 96 88 85 95 95 97 92 96 98 88 88 87 81 71 65
83 84 87 89 86 88 87 84 81 78 79 74 83 83 74 74 73 75 79 79 75 75 76 83 82 82 81 85 83 84 82 88 96 91 84 89 93 90 97 90 95 92 88 93 89 78 69 61 52
71 77 76 78 83 82 83 80 73 78 77 74 79 81 83 73 70 77 72 70 74 76 78 78 77 80 84 82 84 86 92 84 81 87 90 90 96 92 93 92 93 90 89 84 82 75 59 55 51
62 67 68 70 73 73 69 70 68 71 75 77 72 75 73 83 73 80 82 82 77 75 77 77 79 81 79 83 87 87 85 89 87 89 93 91 86 87 88 89 90 85 77 81 76 63 59 57 50
54 57 58 61 59 59 60 61 65 69 74 74 75 71 71 78 73 66 71 77 79 81 82 82 79 78 76 76 82 85 85 87 94 94 95 95 94 90 89 93 82 78 77 72 67 61 59 53 50
45 48 48 49 51 54 56 60 64 69 68 71 64 71 66 71 68 67 72 75 74 71 71 73 76 81 81 80 76 82 88 94 91 94 94 93 91 88 88 76 80 77 73 67 63 60 57 60 54
41 43 43 46 46 51 53 51 60 65 66 69 65 55 55 62 62 61 67 71 72 77 81 72 69 74 75 81 86 89 94 88 92 88 89 84 90 86 79 74 74 73 67 63 61 61 59 58 51
37 37 41 41 41 44 53 59 58 60 59 64 59 72 61 65 71 71 69 74 69 69 72 61 71 73 81 85 86 85 91 88 88 89 93 91 82 79 72 72 69 66 65 64 61 60 60 60 59
30 30 34 37 37 40 47 53 50 42 53 58 67 61 59 69 67 66 60 68 64 64 63 71 80 85 78 82 91 86 84 86 84 89 88 85 84 74 66 67 65 65 63 62 62 60 61 65 63
24 28 30 34 34 41 43 45 47 41 39 37 42 48 54 60 61 67 64 65 55 59 67 62 64 71 78 80 82 86 87 87 88 88 86 77 72 68 64 66 64 65 63 63 64 66 68 70 70
28 26 29 31 34 35 41 44 49 53 42 45 49 54 56 58 57 57 59 61 64 63 71 69 71 72 75 79 84 86 86 83 79 72 73 71 69 66 63 63 67 67 68 69 70 74 74 72 71
27 24 25 32 37 33 36 44 41 38 39 37 44 49 47 51 57 53 59 60 64 63 65 70 75 75 77 78 81 81 67 61 61 64 66 72 72 71 72 73 74 74 74 77 79 77 75 73 71
24 27 25 26 32 30 28 37 37 38 44 43 44 53 54 55 54 56 60 61 62 65 65 71 70 72 75 71 64 58 56 60 58 57 65 72 70 72 79 80 80 81 81 83 81 78 77 76 75
23 20 22 18 18 26 30 30 36 41 45 47 48 54 55 58 60 61 62 65 63 64 67 69 71 66 57 54 50 51 46 54 55 59 68 68 77 83 85 85 85 88 86 86 84 81 77 77 78
23 23 20 24 26 27 30 32 35 40 45 48 51 54 54 56 59 60 61 60 59 62 59 58 54 47 33 48 48 48 59 61 71 74 80 85 88 90 90 89 90 87 86 84 81 81 82 82 81
25 28 30 33 33 33 34 38 39 45 48 53 52 49 58 58 60 55 48 51 52 47 47 48 41 44 32 54 52 54 62 66 77 85 91 92 92 91 90 88 88 85 82 83 84 86 87 88 88
27 30 32 32 32 33 35 38 40 42 44 46 48 48 45 43 42 44 45 43 45 47 47 45 43 44 43 55 62 62 63 70 79 83 85 84 86 86 86 85 85 86 87 88 89 90 90 90 90
24 25 27 29 30 30 31 33 34 36 37 38 38 38 38 38 39 43 45 44 42 40 40 42 44 47 48 53 61 64 66 70 73 76 77 78 79 81 83 85 85 86 88 89 90 90 91 93 95
22 24 25 25 26 27 28 31 35 35 34 33 32 33 35 39 38 34 33 34 35 36 39 41 42 45 48 52 55 58 62 66 70 72 74 76 78 79 81 83 85 86 88 90 91 93 97 102 106
21 22 23 23 24 25 27 29 30 30 30 30 29 29 30 29 28 28 28 30 31 35 38 40 43 46 49 51 54 58 62 65 66 68 70 73 76 79 81 82 84 86 89 92 97 103 106 109 112
20 22 22 23 23 25 26 25 27 23 22 24 22 21 21 23 26 28 30 32 36 38 41 44 47 50 53 56 59 62 65 67 69 70 72 73 76 77 78 80 85 91 95 100 106 109 113 115 118
23 22 20 22 23 21 18 17 15 12 10 12 14 17 20 25 29 32 36 38 41 44 47 51 54 56 59 61 63 65 66 68 69 70 71 73 73 77 82 86 92 98 102 107 108 110 112 114 111
19 17 16 13 10 8 6 6 9 10 12 14 17 21 25 28 32 35 39 43 45 49 51 54 56 58 60 62 63 64 64 65 67 68 70 74 78 81 87 92 98 102 107 107 110 109 107 107 109
11 11 9 9 7 5 6 8 11 13 15 18 22 27 30 31 34 37 41 44 47 50 52 54 56 58 59 60 62 63 65 67 69 72 75 78 82 90 96 99 103 109 109 110 110 107 107 107 105
14 13 11 7 6 8 9 10 12 15 18 19 22 26 29 33 37 40 42 45 48 51 52 53 56 57 59 60 61 63 67 69 70 73 80 83 91 97 102 107 111 112 110 110 114 113 106 102 99
14 9 7 6 6 8 11 12 15 18 21 21 24 27 32 36 38 42 46 48 50 52 54 56 58 59 59 60 60 63 67 71 76 80 85 92 97 103 109 110 112 111 113 116 114 106 100 96 93
7 4 4 7 9 12 15 16 20 22 21 24 28 32 36 40 44 46 46 49 52 54 57 58 57 59 59 60 62 69 73 79 83 88 94 99 105 109 110 112 114 113 116 115 108 101 95 91 86

GFSSGP_250_spd_030.txt.gz
Wind_Speed
103 102 102 99 99 99 95 93 90 88 87 83 82 82 81 83 84 83 82 83 83 83 86 86 85 83 83 86 84 81 83 84 86 82 86 88 92 90 93 90 85 87 86 81 87 92 88 86 94
101 103 104 100 97 99 100 94 93 90 88 85 83 81 81 80 82 84 82 81 79 81 87 85 84 83 82 83 81 82 84 86 88 90 91 92 92 91 84 82 86 84 80 89 92 91 89 93 85
99 101 102 100 98 98 98 94 90 88 86 87 83 80 80 78 78 81 79 82 83 80 87 85 83 81 84 89 89 87 88 90 90 89 91 93 91 80 83 85 80 82 88 92 88 87 91 82 82
94 97 95 96 102 99 95 92 91 90 90 81 81 79 80 77 77 81 83 83 87 86 87 87 83 84 86 84 90 90 91 90 89 84 87 82 80 83 84 86 87 88 92 92 93 82 78 79 75
80 88 83 88 95 94 94 92 91 86 85 84 77 77 81 76 76 79 84 75 68 72 76 80 81 80 77 87 89 82 79 84 79 83 81 84 89 85 83 86 89 91 86 86 84 80 80 77 69
68 69 76 76 81 86 88 89 86 89 84 81 71 74 78 73 71 56 59 74 81 77 69 70 63 62 70 73 74 76 79 78 80 83 92 84 81 84 84 93 92 85 78 82 79 75 75 69 64
56 56 58 64 68 73 75 77 80 80 81 79 72 68 73 73 68 53 69 69 69 75 73 62 68 72 73 68 74 75 72 77 89 77 78 82 86 88 91 85 86 86 81 81 75 74 67 63 61
44 46 47 48 55 59 66 68 69 73 69 67 62 66 69 68 63 63 76 82 81 76 69 65 72 79 81 85 84 80 83 75 72 83 80 85 89 87 83 84 84 77 78 80 72 68 64 60 55
40 42 42 47 50 52 55 54 54 56 57 57 61 66 67 68 62 67 67 66 71 74 81 81 77 72 76 71 74 78 66 67 77 79 82 85 83 82 78 81 81 82 83 80 69 65 61 59 57
39 38 39 42 44 46 46 47 43 45 51 58 60 64 65 61 62 62 56 58 62 63 64 66 69 66 67 66 75 70 70 74 80 85 84 82 84 81 82 86 84 81 77 69 67 61 59 58 58
34 34 37 38 41 41 43 44 49 52 49 49 57 61 61 63 63 59 66 67 66 62 56 58 62 58 65 60 62 70 75 71 75 76 80 86 86 86 88 88 86 79 72 64 61 62 59 61 59
30 31 31 33 34 35 39 44 45 45 45 39 42 53 58 55 55 57 53 53 56 61 64 64 59 57 63 69 67 71 77 78 79 81 88 86 86 86 89 84 80 72 59 60 59 63 65 64 61
25 25 26 28 29 34 34 36 39 42 42 43 43 44 51 55 63 61 58 56 55 56 55 54 60 59 62 68 72 76 79 77 80 83 85 85 85 83 80 79 71 63 65 67 66 70 71 72 69
24 24 25 26 27 30 32 31 35 45 52 50 36 38 43 45 54 66 67 65 69 70 70 64 67 64 68 72 72 76 77 82 79 81 80 76 79 77 77 74 72 71 72 71 75 84 82 83 83
24 24 21 23 25 23 23 23 26 35 39 42 39 40 43 44 46 53 54 55 54 54 59 60 64 66 69 72 72 73 72 73 73 68 67 70 73 69 74 74 70 71 74 76 84 89 92 91 87
27 26 24 21 21 24 24 23 25 35 45 44 46 47 54 51 45 46 47 48 54 58 61 62 63 64 71 68 69 66 63 65 61 61 63 62 65 68 73 76 77 71 82 83 90 96 98 90 86
27 27 27 22 18 19 24 26 24 31 45 38 37 37 41 41 48 51 55 57 57 59 61 66 68 66 64 60 54 46 53 55 57 51 59 64 65 71 74 76 85 89 88 96 99 104 94 88 84
26 25 23 22 23 21 24 26 27 31 35 38 42 48 49 51 55 55 54 55 59 61 61 58 56 55 58 49 44 46 50 53 57 57 62 68 71 78 81 88 92 94 98 103 100 90 86 85 83
31 27 24 23 24 22 21 22 28 34 44 46 49 52 53 52 51 52 52 54 56 60 57 54 49 50 49 47 48 56 56 62 64 63 65 73 79 82 87 92 95 96 88 87 89 88 87 86 86
26 24 23 24 22 23 24 28 34 35 40 44 45 46 48 52 51 52 56 50 48 47 47 46 45 44 42 42 45 50 57 64 71 75 78 80 84 88 88 87 87 88 88 87 86 86 87 85 82
23 27 28 26 27 28 30 33 36 39 41 42 41 39 41 41 42 44 42 39 40 42 41 40 42 43 43 44 47 52 56 59 70 73 73 73 76 80 81 83 85 86 88 87 85 82 82 85 90
25 26 27 27 30 31 31 31 32 32 31 31 32 34 37 39 37 34 37 37 34 33 32 34 37 41 44 47 50 53 56 59 64 68 71 74 77 80 81 82 83 82 81 80 81 86 90 94 97
27 26 27 28 30 31 30 29 28 27 27 29 29 29 31 33 32 29 25 24 28 30 33 37 40 44 48 51 55 58 62 65 69 72 74 75 75 74 72 71 71 74 79 84 86 92 96 101 105
24 26 27 27 26 25 25 26 26 22 24 27 28 27 21 17 18 20 23 28 32 35 38 41 44 48 51 55 58 61 65 67 69 69 69 68 67 66 68 73 77 81 85 89 95 98 105 107 109
22 22 21 20 22 23 22 19 20 21 17 13 12 13 15 17 21 25 29 31 33 37 40 43 45 48 51 54 57 59 62 64 66 66 65 65 66 69 74 79 83 87 91 96 100 105 108 108 110
20 19 21 22 19 17 18 18 14 10 10 11 11 14 18 21 23 25 29 32 35 38 42 44 46 49 51 54 57 59 61 63 65 64 64 67 72 76 81 86 89 93 99 102 105 106 108 107 109
18 20 22 20 20 19 16 11 9 9 10 13 15 18 19 21 23 27 29 33 37 41 44 46 49 51 53 56 58 59 61 63 65 66 68 71 76 81 86 90 94 99 104 106 108 107 109 111 110
23 20 17 17 15 12 9 9 10 13 15 17 18 19 21 22 26 27 31 35 39 43 46 49 53 55 55 58 62 63 63 63 64 66 70 75 82 86 92 97 101 106 109 110 109 109 112 110 107
15 15 16 14 11 11 11 14 16 17 18 20 21 22 25 28 30 34 40 44 47 50 54 56 58 59 60 63 66 68 67 65 67 71 77 84 89 94 99 102 106 105 107 110 111 113 111 108 105
19 16 14 12 13 14 16 17 19 20 22 24 25 28 29 32 34 40 44 48 52 55 60 63 65 65 65 68 70 71 70 69 72 78 84 91 96 100 103 105 104 104 104 108 109 111 108 104 100

GFSSGP_250_spd_036.txt.gz
Wind_Speed
93 96 94 96 94 95 95 98 101 97 96 98 92 91 86 81 80 77 70 62 72 76 75 74 71 73 75 78 78 75 78 80 83 83 85 81 82 80 84 85 87 87 91 92 93 88 86 83 86
93 95 95 96 98 98 100 101 103 97 94 102 94 81 83 82 84 80 73 67 69 74 75 77 75 75 74 78 77 74 73 69 70 75 77 78 80 77 74 79 79 81 81 78 79 80 78 88 91
90 92 93 95 97 94 99 102 95 98 93 94 87 83 86 86 85 81 74 72 72 72 70 70 75 77 79 78 79 80 78 78 77 74 74 78 82 77 72 70 70 71 70 73 75 83 91 85 79
83 84 90 91 93 92 101 97 87 84 86 87 84 79 84 87 84 79 70 61 62 62 68 69 70 71 76 72 83 83 81 79 78 81 79 73 77 77 66 65 67 64 75 77 84 84 73 77 83
74 81 83 82 81 85 87 86 73 76 67 73 73 74 80 80 78 73 52 52 57 63 67 67 73 73 72 73 72 72 77 75 72 70 64 67 66 60 69 64 65 68 79 84 71 72 79 74 71
69 73 75 76 78 84 87 61 71 56 60 65 65 69 70 70 70 70 67 56 51 50 57 60 62 62 68 71 71 67 54 53 59 60 61 54 58 69 66 69 77 84 79 75 78 79 76 73 75
65 63 67 68 71 69 61 57 61 55 54 63 63 64 61 59 60 69 65 59 52 53 54 58 66 66 65 63 61 53 50 56 59 61 59 63 67 68 73 76 82 78 79 81 84 77 75 84 82
55 55 55 58 60 54 26 43 44 49 50 60 50 54 51 60 54 57 45 52 51 45 46 65 71 57 53 46 48 51 51 57 56 62 63 70 69 77 80 74 80 78 80 71 76 78 84 85 82
50 46 45 50 46 36 31 29 39 52 56 53 48 46 49 58 52 48 45 27 20 36 51 57 60 49 43 48 51 58 61 60 65 70 76 78 75 76 74 79 82 76 75 83 85 83 86 83 80
45 43 45 39 30 24 18 26 37 47 57 52 44 21 50 49 51 50 49 32 35 54 67 56 51 48 49 50 52 53 61 75 72 77 78 77 84 81 80 76 80 82 82 87 88 91 84 83 80
38 37 33 33 34 37 32 43 50 46 47 46 47 50 56 50 44 44 47 45 53 62 65 59 58 57 61 63 62 66 75 86 85 78 78 73 81 78 84 86 82 83 84 85 86 86 86 85 82
35 32 31 34 46 45 52 45 42 44 41 42 34 34 39 41 34 37 36 45 54 64 67 69 73 71 73 73 80 78 76 81 78 77 75 77 78 79 80 84 86 88 92 90 86 86 85 80 68
31 29 29 26 37 48 53 47 48 42 37 21 24 26 34 29 24 41 47 53 63 69 73 74 76 82 83 81 84 78 83 83 80 78 79 84 85 84 88 90 95 94 90 87 89 90 79 71 67
26 24 23 26 30 31 34 36 37 26 23 29 26 26 27 28 27 32 55 59 65 68 78 80 82 87 81 72 79 81 80 80 79 80 83 87 84 87 91 93 93 92 93 91 81 75 71 71 70
28 25 25 27 29 27 31 36 31 28 31 31 36 33 32 30 37 34 38 66 66 74 79 81 84 84 82 85 85 80 77 75 80 80 81 84 90 93 93 94 93 89 82 79 74 67 68 73 78
27 28 28 25 26 31 30 31 30 29 26 31 36 38 39 37 39 38 34 37 49 66 69 72 75 77 83 82 83 83 81 82 80 81 83 89 87 88 84 82 80 80 75 75 70 78 82 83 84
30 31 29 27 26 31 32 29 27 26 25 28 33 35 39 43 49 46 44 42 46 41 53 57 62 74 82 83 79 71 73 78 78 79 78 80 78 77 75 75 76 77 75 77 80 84 88 93 97
34 30 31 30 24 27 28 21 23 23 28 29 29 32 35 49 49 46 47 49 49 51 57 55 56 60 61 62 66 69 72 74 76 78 78 72 71 67 69 71 73 74 78 81 85 87 89 90 88
32 28 33 26 23 24 23 22 23 24 23 22 20 22 26 30 46 51 48 46 48 55 55 57 59 64 68 72 73 74 74 73 68 66 64 62 60 62 65 68 71 77 79 80 84 85 86 86 83
29 30 28 24 21 22 21 19 22 27 29 27 26 24 29 30 38 38 46 53 58 59 55 61 65 67 64 65 67 65 58 55 51 52 55 59 63 67 70 73 73 74 77 78 77 76 75 75 73
33 30 26 26 22 24 26 28 25 29 29 30 32 37 42 39 44 44 50 55 58 61 61 58 58 59 54 54 52 50 47 48 51 54 57 60 63 65 66 67 69 70 71 73 73 71 69 69 72
31 25 27 21 18 19 25 27 28 29 30 27 32 40 43 47 48 51 55 57 56 56 57 57 52 47 46 42 42 44 46 47 49 52 54 58 62 65 67 68 70 71 73 74 74 75 75 77 77
27 26 24 21 24 25 24 25 28 27 28 30 34 38 41 45 47 49 48 48 48 46 45 41 38 35 33 38 40 40 40 42 46 50 54 55 60 64 67 69 71 72 74 76 76 75 77 81 85
24 21 24 25 27 28 31 26 30 31 31 32 34 37 36 36 36 37 37 38 37 35 31 31 25 32 34 36 39 41 46 50 54 59 62 65 66 67 66 69 71 73 75 75 77 79 83 89 96
24 24 26 27 31 33 30 30 35 26 35 30 42 32 31 31 33 30 26 27 27 28 29 29 28 33 37 41 45 48 53 55 60 65 67 71 73 73 72 74 75 75 75 78 82 88 92 98 105
26 25 27 29 36 29 34 35 33 31 32 28 31 30 30 26 23 24 26 26 27 28 29 31 35 37 43 46 49 53 56 62 66 72 76 77 79 78 76 77 77 78 82 88 93 98 103 106 109
26 29 29 30 34 32 32 30 27 25 25 26 28 27 25 25 26 25 26 28 29 31 34 36 40 42 48 50 53 57 62 68 73 77 80 83 84 80 79 79 80 84 90 95 101 104 107 108 109
32 31 31 31 31 28 24 28 21 26 25 25 25 26 27 27 26 27 29 30 33 36 39 42 45 48 52 56 61 64 69 76 79 82 85 87 85 82 83 84 87 91 98 102 106 109 108 109 105
34 34 32 28 27 26 26 21 24 23 24 24 25 27 26 27 29 31 33 36 39 42 45 50 52 53 57 61 67 71 76 80 82 85 88 86 85 85 86 89 93 99 104 108 110 109 107 107 106
33 29 27 28 27 25 22 22 23 24 25 25 26 26 29 32 36 38 41 41 44 46 50 55 59 61 63 68 71 77 82 83 86 89 88 86 86 88 91 94 99 104 107 109 109 109 106 107 107

GFSSGP_250_spd_039.txt.gz
Wind_Speed
92 94 94 92 89 92 93 94 89 85 85 86 86 86 89 88 86 78 73 74 74 70 70 69 74 75 71 72 76 76 70 68 70 74 74 75 76 74 75 75 77 76 76 77 68 65 73 71 65
88 89 90 92 91 92 94 92 94 91 88 87 84 86 90 91 88 80 71 73 75 74 72 69 66 71 72 72 74 76 73 70 70 76 78 74 74 77 75 74 75 76 79 79 71 77 66 64 66
82 81 87 86 86 90 97 94 92 91 92 92 89 92 90 87 82 76 72 71 71 71 72 72 73 70 70 73 77 73 71 70 74 70 68 67 73 77 75 76 62 68 69 71 64 57 62 66 79
74 78 82 82 81 90 94 95 92 89 87 92 89 87 85 77 73 74 71 67 65 64 63 68 69 67 69 71 72 70 72 73 68 66 66 69 72 73 73 60 62 63 60 59 60 61 72 79 78
68 74 75 78 82 87 86 90 88 86 80 82 66 63 70 67 64 66 56 49 47 50 56 49 60 67 72 73 75 71 70 68 66 67 68 68 64 55 56 58 62 56 63 63 65 75 80 84 80
55 62 66 72 77 78 79 80 76 72 72 70 60 63 61 61 57 54 50 42 44 55 66 66 64 64 66 70 67 60 56 52 58 60 59 54 52 55 58 60 57 63 69 66 71 75 81 70 77
48 53 56 66 71 79 64 59 60 67 69 62 49 59 54 39 41 38 44 45 50 55 49 57 64 66 63 62 60 61 59 60 54 57 47 47 50 59 58 58 66 68 74 77 82 77 73 81 85
44 47 51 57 59 62 42 51 57 59 61 49 45 54 47 36 37 40 43 31 23 35 36 51 45 54 57 53 54 53 54 59 48 45 51 54 55 59 60 64 74 82 75 75 80 84 85 85 88
41 43 47 54 48 39 42 50 53 43 44 40 41 37 23 34 35 38 42 45 59 49 49 53 55 57 55 55 55 60 68 52 48 45 51 58 63 68 76 80 82 82 81 80 78 78 78 83 88
36 38 48 40 31 32 35 41 33 35 35 35 32 18 25 37 38 28 42 39 48 49 51 54 59 62 60 61 68 70 64 51 57 55 60 63 67 71 77 80 78 75 78 79 82 88 82 85 88
36 44 37 35 22 34 37 37 33 35 29 25 31 27 36 40 35 31 34 40 36 41 49 61 66 65 60 63 62 58 52 57 56 59 64 66 73 74 79 81 85 80 82 82 86 90 86 92 89
33 34 29 20 36 41 43 40 40 37 36 34 27 27 36 42 39 38 33 47 42 47 49 66 70 66 59 52 48 53 63 64 72 73 77 77 84 88 86 88 95 91 91 89 88 87 90 92 92
30 28 26 25 40 41 46 45 38 36 37 37 20 21 44 39 48 32 34 49 53 49 44 46 51 54 57 56 60 60 66 71 75 80 82 77 77 79 86 87 87 87 88 86 87 92 96 98 92
28 29 27 33 41 45 40 44 37 37 41 25 21 23 26 39 36 34 36 40 55 62 62 59 61 65 68 74 73 77 80 79 77 79 83 82 84 84 90 92 87 91 92 95 95 91 86 88 86
28 25 28 31 40 49 38 39 31 33 30 28 25 28 31 24 32 32 34 43 49 67 73 75 71 73 78 74 77 79 83 89 89 87 83 87 88 91 92 97 98 96 92 93 94 86 84 79 77
28 30 27 27 30 53 39 44 44 37 27 30 38 36 33 30 33 35 36 42 56 58 64 71 73 75 74 77 80 80 85 87 90 94 95 97 101 98 94 90 89 92 88 91 87 84 80 77 77
26 32 29 28 25 29 32 32 35 30 29 28 36 35 37 38 38 40 36 37 40 55 63 62 60 65 70 79 83 79 79 84 88 90 91 87 89 87 90 91 85 83 78 77 76 78 80 81 81
32 35 32 28 25 24 25 23 26 28 25 34 33 35 42 41 41 40 41 42 43 47 50 57 63 64 62 67 69 71 76 78 74 74 77 81 85 86 87 79 73 73 74 75 75 76 76 76 76
34 33 28 26 26 24 24 26 25 23 21 22 25 24 29 37 45 44 48 53 53 50 49 55 51 58 63 67 66 59 67 73 70 68 69 71 72 72 70 69 71 72 72 72 72 72 72 74 78
33 29 25 26 28 27 20 21 22 24 25 25 27 27 27 28 27 27 43 53 56 56 49 56 60 57 60 62 63 67 69 72 72 69 67 64 61 62 59 59 59 63 67 69 71 72 74 78 81
28 21 24 27 27 21 22 19 18 23 27 30 32 32 26 28 31 31 31 34 42 45 54 58 60 60 67 69 68 67 64 61 57 56 56 54 52 50 55 60 64 66 70 74 75 75 76 77 77
23 22 19 25 23 23 25 26 29 27 27 32 32 33 35 34 40 43 43 43 43 47 50 54 56 58 60 59 56 55 53 50 49 46 47 49 49 52 58 65 70 74 77 79 77 77 78 77 76
24 22 21 23 20 24 22 22 20 21 25 23 32 35 36 36 40 42 45 45 46 49 50 51 51 50 49 47 49 45 44 45 44 46 50 51 57 63 68 72 74 78 82 83 80 80 78 77 80
25 22 21 21 22 26 26 24 21 25 25 25 30 30 34 36 36 38 40 40 40 41 42 42 41 43 45 43 42 45 45 44 45 48 52 55 61 66 72 75 78 82 86 83 79 80 81 84 88
24 22 22 26 27 32 27 24 23 27 28 29 32 34 28 26 27 33 35 36 36 36 36 35 38 43 42 42 45 48 47 47 48 52 58 63 68 73 78 80 84 89 89 83 82 85 90 94 97
25 23 20 25 30 32 29 29 26 29 32 32 38 36 31 29 32 33 33 32 32 32 35 36 37 40 43 46 48 52 54 53 54 61 66 71 77 80 83 86 91 94 89 86 89 92 97 101 106
27 23 24 27 29 30 30 29 31 33 34 35 29 29 34 39 39 31 28 29 32 31 36 37 38 41 47 52 55 57 61 59 63 67 71 78 83 84 86 91 96 95 90 90 93 98 104 108 110
27 28 28 27 29 32 32 29 28 33 28 27 28 29 31 30 29 29 30 32 34 36 38 42 43 45 51 56 60 63 67 67 70 74 79 83 84 87 90 95 97 94 92 94 98 105 108 111 110
31 33 31 29 31 34 31 26 28 33 29 27 29 26 25 26 30 33 33 35 38 42 45 47 49 50 53 57 62 65 69 72 76 79 83 83 86 92 93 99 100 96 95 100 104 110 113 112 109
35 32 34 33 33 34 31 26 32 31 31 28 23 25 27 31 33 33 34 36 40 42 47 52 55 54 55 56 61 66 70 74 77 81 82 84 89 93 99 101 98 96 99 105 110 112 111 107 108

GFSSGP_250_spd_042.txt.gz
Wind_Speed
76 81 87 87 90 91 92 94 92 90 87 85 86 84 85 85 81 83 82 78 78 72 71 71 72 72 72 69 72 73 72 71 70 68 69 72 73 75 75 75 76 79 76 72 74 76 71 71 70
63 73 77 82 86 90 92 92 92 89 89 87 88 88 85 86 82 84 83 78 75 72 70 67 68 73 72 71 72 73 75 72 72 71 73 73 75 74 71 74 71 70 70 74 73 69 66 63 53
58 62 71 75 77 85 94 94 91 88 87 88 89 89 87 87 86 87 84 79 73 66 66 64 63 66 70 69 71 74 74 71 69 72 75 76 73 70 69 68 67 68 73 69 64 58 63 60 51
51 56 59 66 73 89 86 87 85 85 88 87 87 85 89 91 89 86 80 79 71 60 58 55 58 60 58 67 67 67 74 74 72 71 70 69 69 70 65 67 70 69 65 55 56 60 57 57 62
45 49 51 58 75 82 77 79 77 79 83 84 79 75 79 80 77 77 72 68 62 55 51 50 50 54 60 60 64 61 61 67 70 71 69 68 69 59 61 63 64 61 53 54 61 62 62 64 64
41 43 48 59 68 68 66 74 68 78 80 77 78 71 66 60 64 56 42 37 39 44 44 40 49 58 57 57 53 64 68 64 65 65 58 61 59 63 66 62 61 53 53 59 61 57 63 71 79
34 39 45 56 57 56 61 65 59 66 69 72 71 71 67 56 55 47 39 33 36 30 25 35 50 55 59 58 65 64 52 57 62 54 57 57 59 62 62 56 57 53 58 62 67 65 81 80 80
28 33 38 50 51 55 53 51 53 58 61 68 63 59 61 49 49 40 35 46 34 30 34 33 46 51 45 55 50 48 49 53 52 51 52 54 55 62 56 56 53 60 66 66 67 75 80 80 74
28 35 41 50 46 38 29 36 42 52 52 55 55 56 52 45 44 43 40 39 39 37 36 46 45 50 53 49 48 50 52 47 49 52 49 55 66 65 59 56 61 60 62 73 71 70 74 86 85
31 36 46 38 27 24 26 34 42 46 44 46 45 47 44 36 40 41 38 38 42 44 45 48 54 51 50 44 44 44 49 51 54 56 55 57 55 57 58 57 58 59 69 81 87 86 86 84 92
32 39 33 19 20 23 30 33 39 39 43 42 41 38 27 34 42 38 36 42 42 37 45 48 53 57 53 52 49 53 55 60 61 62 57 54 57 60 60 68 80 79 86 84 84 86 93 94 96
36 34 25 21 18 25 27 34 36 40 34 31 22 25 30 39 42 36 40 37 48 51 51 64 57 54 56 57 57 61 62 67 58 49 62 60 65 75 77 76 74 79 86 93 96 93 96 92 93
30 28 22 23 25 33 35 39 38 39 30 26 23 28 33 29 37 40 33 34 42 54 59 69 60 54 62 57 59 62 61 58 68 73 71 74 71 76 77 82 89 89 92 95 95 98 96 100 97
21 18 17 22 27 33 38 41 42 33 29 27 33 23 27 34 35 33 37 41 38 52 55 60 56 53 58 55 56 58 62 64 64 66 71 68 78 81 83 89 92 95 98 99 93 89 87 87 89
21 24 17 23 26 31 37 40 43 40 32 31 14 23 19 20 29 35 36 44 37 46 56 46 50 55 59 66 64 66 68 67 73 74 75 78 82 82 82 83 88 93 91 87 90 94 92 88 92
30 26 25 26 26 33 37 41 44 39 40 33 30 30 30 28 30 34 38 42 48 55 56 52 55 58 62 65 68 71 67 72 76 77 81 82 87 89 93 82 84 84 87 92 91 89 83 82 82
30 26 24 29 28 31 38 39 43 40 36 32 30 32 33 34 33 33 40 43 48 63 69 64 61 64 71 67 69 66 65 68 71 67 78 77 78 79 82 86 83 85 82 75 73 75 73 70 70
26 26 27 32 29 29 29 30 30 36 39 37 32 32 39 44 42 36 45 46 48 50 52 58 64 68 63 71 73 75 73 72 74 77 77 82 88 87 86 82 82 80 69 64 67 66 69 71 73
25 26 28 29 29 26 21 25 33 32 36 37 32 40 42 39 46 46 45 45 49 53 55 47 48 48 54 60 64 66 69 72 73 79 79 81 80 81 78 79 72 66 63 62 64 66 70 73 76
23 22 29 26 22 20 19 18 23 25 26 29 30 37 42 39 43 44 47 45 47 50 47 49 53 57 55 57 60 65 69 69 71 73 77 80 80 78 75 68 63 62 61 65 69 72 73 78 82
20 25 25 23 22 21 21 19 20 24 24 25 25 26 31 35 30 30 39 43 45 47 48 52 54 56 62 63 64 65 68 70 68 75 76 76 71 65 61 58 61 63 66 71 74 76 77 81 86
21 25 23 25 22 23 27 24 22 20 24 26 27 28 29 33 36 32 33 35 37 40 37 41 47 49 55 55 54 56 61 61 63 66 65 62 61 59 61 61 63 66 71 76 80 81 83 86 89
21 25 23 22 21 26 28 21 21 23 25 24 26 31 35 39 38 37 38 40 42 43 47 50 50 51 49 55 58 60 60 61 60 60 59 60 63 62 62 65 67 72 77 81 83 85 89 92 95
24 24 24 21 21 27 24 24 24 25 28 31 31 31 32 36 37 40 43 44 44 43 44 45 45 50 53 55 55 52 52 55 56 58 60 63 65 65 68 71 74 76 81 85 87 89 92 95 99
23 24 22 23 26 25 28 23 25 26 28 28 28 28 30 33 35 35 34 36 35 34 33 37 43 47 44 44 47 49 52 55 58 61 63 65 68 70 74 75 77 80 84 85 88 92 94 99 97
19 22 23 24 25 24 27 22 22 25 27 29 28 26 27 30 35 37 31 30 30 33 33 36 37 41 43 46 49 51 54 58 61 64 64 67 69 70 73 75 80 83 83 89 92 95 100 100 96
21 22 23 23 22 23 18 23 28 29 29 29 30 28 26 29 31 30 29 29 38 37 34 37 41 44 45 48 50 55 57 60 62 62 64 67 69 72 73 76 79 84 89 92 97 103 101 99 99
21 22 21 24 27 26 25 26 31 30 32 33 33 32 28 28 28 29 31 36 36 36 38 41 40 42 41 49 53 57 60 58 59 62 67 69 70 70 74 80 85 90 93 97 103 103 102 103 106
24 26 24 23 28 30 27 29 31 31 30 27 28 27 29 29 29 29 33 33 35 38 39 39 39 41 45 50 55 59 62 64 68 69 68 72 75 79 84 88 92 96 98 103 105 103 105 110 114
28 29 30 31 31 33 33 32 34 32 27 26 28 30 30 27 28 30 31 35 36 39 40 41 43 46 50 53 57 62 66 70 72 73 74 77 81 85 90 93 97 101 104 105 104 107 112 114 112

GFSSGP_250_spd_045.txt.gz
Wind_Speed
55 56 63 67 76 85 87 94 97 95 93 90 90 86 85 87 84 81 80 77 76 77 76 76 72 70 67 67 68 69 70 72 73 72 71 73 74 72 72 74 76 76 76 76 76 70 73 69 72
49 54 56 60 65 74 83 90 94 94 94 92 89 86 87 87 85 84 81 80 78 78 76 74 71 68 66 66 66 67 68 71 72 73 73 75 78 76 75 74 74 74 77 77 74 73 70 66 66
46 49 54 56 62 72 76 81 85 89 86 89 90 91 89 88 86 86 85 82 82 79 72 67 67 66 67 64 64 66 68 71 73 72 72 71 73 75 75 77 77 76 75 75 72 67 64 62 53
43 46 49 53 63 66 65 71 75 78 84 86 89 89 89 87 86 86 85 83 79 75 69 68 67 66 67 61 58 62 63 71 75 74 69 67 71 71 74 74 72 75 71 68 66 66 66 58 52
38 41 47 51 56 55 58 60 68 72 70 76 84 84 86 83 82 82 79 74 68 65 62 63 62 61 58 57 59 59 61 64 65 64 63 64 62 61 63 67 68 62 63 67 67 64 60 53 53
34 37 46 49 52 50 49 53 56 58 56 48 78 78 80 77 75 77 67 65 60 48 47 55 53 50 54 56 58 51 55 56 60 59 59 63 62 63 63 62 61 60 60 65 63 57 54 56 58
34 36 39 44 42 44 44 48 49 53 57 67 71 71 74 73 72 67 62 52 47 49 38 39 35 42 51 52 38 42 51 55 58 60 59 50 52 55 53 56 59 61 61 62 62 59 59 56 48
31 34 38 41 38 38 40 41 39 48 55 61 63 58 62 62 61 59 52 45 45 37 33 40 31 24 28 36 39 48 50 50 49 47 51 56 59 56 59 62 60 59 55 54 57 61 55 56 61
26 33 35 32 30 32 33 31 35 42 47 50 53 53 52 53 51 48 50 47 47 44 38 38 30 23 32 49 55 53 53 52 54 59 50 47 58 59 62 52 50 56 60 62 61 58 59 69 77
24 31 32 25 23 24 27 30 37 43 47 48 47 43 43 42 40 42 44 45 44 47 48 46 39 37 34 44 52 55 46 53 48 48 48 48 58 55 53 52 52 48 46 57 64 73 80 84 89
26 27 21 23 23 22 24 30 33 39 46 49 46 42 36 35 33 37 43 46 46 47 52 46 43 43 45 46 46 51 49 56 47 49 45 53 55 59 56 66 68 72 71 73 75 75 81 82 88
21 22 19 16 20 24 20 22 27 38 43 36 37 36 35 33 36 40 42 45 48 51 52 52 50 49 45 51 51 50 54 59 53 58 57 62 64 62 63 67 71 75 77 78 81 86 83 87 91
21 18 18 14 16 17 19 21 21 24 32 29 30 30 33 35 34 33 37 41 46 50 58 55 51 47 43 51 51 57 53 56 59 57 56 62 61 58 70 67 70 73 74 82 83 89 94 94 98
13 13 13 14 14 18 19 24 20 23 22 24 27 34 32 32 28 29 31 27 37 46 46 62 56 42 43 51 42 54 55 49 52 55 57 63 67 70 72 78 88 83 86 89 90 95 93 90 85
17 21 17 19 19 19 24 25 24 31 30 30 27 24 25 22 26 34 32 35 37 37 37 54 53 53 51 57 58 49 57 57 56 62 64 67 74 73 78 79 79 85 88 88 88 89 83 80 81
12 17 16 15 18 21 20 22 28 36 34 28 32 30 30 25 22 28 35 35 38 41 45 54 62 60 50 50 59 63 65 57 65 61 70 73 70 78 78 79 82 83 88 85 86 81 77 84 78
14 16 18 19 19 18 20 26 32 40 37 32 33 34 31 37 25 25 28 36 37 40 44 49 54 63 65 65 66 59 63 62 65 64 71 77 80 75 79 81 85 87 83 80 80 83 79 79 73
17 22 24 20 21 21 23 24 29 35 42 32 31 28 30 29 32 33 31 36 42 44 47 51 55 62 66 68 65 61 60 61 70 72 72 75 77 78 78 80 79 82 84 83 81 79 76 71 72
14 17 20 21 22 22 23 25 22 32 42 42 35 25 30 31 30 36 38 40 42 44 49 54 61 58 56 58 59 58 62 60 67 70 70 66 68 74 75 76 80 84 83 75 76 74 73 74 75
12 17 20 22 24 24 22 19 23 23 27 37 35 36 39 33 39 43 42 44 41 38 44 46 51 55 61 60 59 60 57 62 63 67 67 71 75 76 78 75 72 73 72 74 71 73 77 79 80
13 16 16 19 24 23 19 15 13 16 25 26 35 37 32 36 39 40 45 45 45 47 44 48 49 54 61 62 65 70 69 72 74 74 72 71 68 69 69 68 71 70 72 75 77 78 80 82 85
15 15 16 20 22 21 18 16 15 14 19 24 27 29 31 28 32 38 38 40 41 45 41 39 39 46 54 50 52 53 55 53 56 61 62 62 64 65 67 69 71 73 79 81 81 83 85 87 87
15 15 15 21 22 19 20 20 22 21 22 21 23 24 25 29 31 36 40 43 44 45 46 50 48 48 51 54 58 57 57 57 58 57 59 61 60 65 68 72 75 79 81 80 80 81 80 80 82
17 18 16 23 22 21 23 23 22 22 23 24 24 26 28 28 30 35 38 40 39 43 44 45 48 49 51 50 47 47 50 51 53 54 57 60 64 68 71 74 75 74 75 76 79 78 79 82 86
19 21 19 21 21 19 20 20 20 21 23 23 24 25 26 27 30 34 36 36 37 38 42 43 41 35 36 39 42 44 47 51 54 56 60 63 67 69 70 70 71 74 73 73 74 79 84 87 90
17 21 20 25 25 23 22 20 26 27 25 25 25 27 30 32 33 37 38 38 37 37 35 31 29 31 35 39 43 48 51 56 57 57 61 62 63 66 71 73 71 72 75 79 84 88 90 93 96
14 19 20 23 23 19 19 19 25 27 28 26 26 30 33 35 31 32 33 34 31 28 27 29 31 36 39 43 49 52 55 56 55 59 62 65 68 72 71 72 74 75 79 83 88 91 95 99 102
17 21 21 23 22 20 18 21 24 23 27 27 26 29 33 35 34 32 30 31 29 29 30 32 35 37 44 49 52 53 50 54 58 61 65 68 71 71 72 76 78 81 84 88 92 98 101 100 100
14 20 21 17 19 19 19 23 25 27 27 29 32 35 32 29 28 27 29 30 30 29 31 36 40 43 46 48 48 50 54 57 59 62 67 70 72 74 76 79 82 86 88 93 100 102 101 103 108
18 17 22 24 26 27 27 27 28 27 29 31 34 32 27 28 29 30 31 30 30 33 37 39 41 43 43 47 51 55 57 59 63 66 67 70 73 78 83 85 87 89 95 101 102 101 106 110 111

GFSSGP_250_spd_048.txt.gz
Wind_Speed
44 50 53 59 63 66 70 76 86 91 91 95 93 89 86 82 85 82 80 83 76 76 78 75 71 70 68 67 68 67 67 65 63 65 67 70 70 73 74 75 75 76 76 75 76 75 75 74 73
46 46 49 53 58 62 65 74 76 81 85 89 91 90 86 86 80 83 83 80 78 78 75 73 70 67 68 67 67 66 67 66 66 67 66 69 70 71 73 75 76 74 75 75 70 72 75 74 70
46 43 47 49 55 58 62 65 69 71 74 80 82 83 83 83 78 81 79 83 79 78 76 73 71 70 67 67 65 63 65 64 64 65 66 68 71 71 74 75 75 77 75 68 70 70 64 64 61
41 40 46 47 52 53 53 58 61 64 64 71 75 77 79 86 86 78 80 79 80 80 74 71 68 68 70 69 68 66 65 64 65 66 68 71 73 76 72 75 73 74 73 69 69 67 65 62 63
36 35 40 44 46 48 49 53 56 62 59 62 66 70 76 82 85 88 84 78 65 64 67 66 67 67 70 70 68 64 62 63 64 64 66 64 62 67 67 69 70 68 65 67 65 59 61 59 60
35 32 34 36 37 39 42 47 51 50 49 53 58 60 65 68 71 77 80 77 64 42 36 49 52 54 58 59 57 54 55 57 57 58 59 54 54 57 61 64 64 63 61 57 57 56 56 50 47
36 31 31 31 31 37 40 43 45 42 43 46 51 56 45 50 65 76 76 68 62 54 41 40 33 50 55 45 47 50 51 54 57 48 47 52 55 57 62 62 53 53 50 56 56 54 49 52 49
35 30 29 29 26 29 35 40 39 41 44 43 49 53 61 56 58 66 69 66 56 51 51 40 36 49 50 39 40 41 42 41 40 43 49 55 59 58 55 51 52 52 57 54 50 54 62 54 49
31 28 28 25 22 26 31 34 36 38 43 45 48 50 52 55 58 58 51 45 41 47 48 31 49 31 45 36 34 35 35 36 47 52 47 55 58 53 53 56 57 56 56 55 61 51 44 51 67
29 26 22 18 17 22 26 31 35 37 44 43 54 52 52 48 46 46 45 36 35 43 46 52 50 56 51 43 46 34 37 44 56 56 55 56 54 49 46 55 61 55 59 58 49 51 63 64 70
27 18 16 14 15 20 24 30 34 36 42 45 51 54 52 51 45 37 34 30 34 47 48 54 61 64 60 54 46 44 50 42 53 61 54 57 58 57 53 50 55 57 53 51 62 69 74 72 75
25 11 12 8 16 24 28 26 28 33 39 42 45 41 36 35 36 32 31 35 41 47 53 58 60 51 46 48 45 50 51 48 55 58 48 55 59 53 58 54 58 61 69 70 74 74 83 81 84
9 9 6 11 15 17 20 19 20 25 31 38 41 38 33 35 33 31 34 36 40 49 55 62 56 57 48 51 53 50 46 48 50 53 51 51 43 56 56 65 62 65 69 69 72 79 84 85 82
8 9 10 14 14 17 19 20 19 15 22 29 32 30 30 30 35 34 33 37 40 44 55 62 56 60 62 56 51 48 40 46 41 46 45 48 51 58 65 68 66 70 71 71 74 78 78 81 86
5 7 11 15 16 16 12 12 18 14 19 23 28 27 27 30 27 29 31 29 40 41 43 57 50 51 56 54 55 45 49 42 40 51 55 51 52 63 67 68 69 73 75 82 84 86 86 89 84
8 6 10 9 10 9 7 12 17 19 25 18 22 25 21 22 29 28 32 30 35 37 45 42 48 55 54 53 52 49 42 45 51 57 63 65 67 70 71 74 76 74 74 81 81 87 83 79 80
4 1 7 5 2 8 13 14 17 26 27 26 25 22 20 27 18 26 31 32 30 35 39 37 35 35 47 52 60 52 53 49 50 58 57 59 66 71 77 80 74 74 78 73 76 80 75 75 75
6 8 6 4 6 13 10 15 20 25 26 28 27 24 27 25 25 25 29 34 34 37 37 38 41 40 42 53 58 57 56 61 63 65 71 70 70 70 69 71 69 73 78 75 77 77 75 74 76
8 10 11 11 12 11 10 13 20 24 28 31 25 28 31 30 26 28 24 27 29 28 33 37 42 41 44 47 54 62 68 67 64 69 65 69 69 70 73 75 79 85 76 71 73 74 72 74 78
9 9 9 9 12 13 12 17 17 22 22 36 32 32 31 32 31 23 28 30 30 34 34 35 40 43 45 49 52 56 59 62 63 62 64 69 73 74 72 74 77 72 72 71 72 72 74 79 82
9 8 6 10 12 12 13 13 15 17 20 21 32 38 34 30 28 31 33 36 33 31 35 40 41 42 43 46 52 54 56 62 63 71 69 65 62 62 67 66 65 68 68 69 72 76 80 81 81
11 13 10 10 10 12 14 14 17 15 19 24 26 27 37 42 37 34 35 35 42 40 35 42 43 47 43 44 47 52 46 48 53 55 58 59 60 59 62 63 64 66 68 72 75 75 76 79 82
11 13 14 11 9 14 15 14 16 16 16 15 18 23 25 27 28 29 31 28 31 35 39 43 41 42 44 45 47 50 54 60 58 59 60 59 58 59 58 63 67 68 70 71 74 77 78 79 80
10 13 15 13 14 16 16 15 17 17 18 18 19 19 20 21 24 24 24 25 28 31 36 40 42 47 50 50 52 54 55 53 56 55 52 52 54 58 62 65 67 69 71 74 77 77 76 78 81
13 17 18 18 12 17 18 16 19 18 18 21 17 20 23 25 26 26 26 28 31 33 36 39 42 44 45 48 49 46 45 43 52 52 50 56 60 63 64 66 69 69 74 72 73 77 83 85 86
19 13 16 17 18 20 20 18 17 17 19 20 19 22 23 25 28 29 30 32 35 38 40 44 44 43 41 39 37 38 41 42 51 54 57 61 63 62 66 70 70 72 71 76 80 83 85 86 88
21 16 16 18 16 22 24 23 22 19 21 24 26 26 27 29 32 34 36 37 37 37 39 38 35 29 29 31 35 40 42 46 54 57 64 60 63 65 66 69 74 73 78 82 84 88 88 89 93
18 21 17 19 17 20 25 24 19 17 20 20 27 30 30 31 32 34 38 40 39 36 33 29 28 27 32 35 38 44 44 48 58 58 59 64 64 65 68 71 73 78 81 85 88 90 91 94 99
14 20 19 18 21 23 24 26 25 23 20 23 27 29 31 34 37 38 36 33 31 30 30 31 29 29 32 38 41 45 45 57 55 60 65 67 68 70 73 74 78 82 85 89 91 92 96 99 106
22 20 21 19 24 23 24 32 21 23 25 27 29 31 34 36 38 34 32 30 30 29 30 30 31 31 35 39 41 47 52 56 58 67 67 70 71 73 75 81 84 86 89 92 93 96 100 105 107

GFSSGP_250_spd_051.txt.gz
Wind_Speed
66 61 57 52 52 53 55 64 72 77 77 81 83 89 91 85 87 89 86 81 78 80 77 77 78 75 74 72 70 69 68 70 69 69 66 65 66 69 67 70 72 72 73 74 74 74 76 78 80
66 58 53 52 50 51 55 58 66 71 71 76 79 76 80 85 87 87 86 83 83 81 78 77 77 72 72 72 68 68 67 67 66 67 66 65 68 68 66 69 71 71 71 71 74 75 77 78 76
64 55 50 47 46 50 54 54 58 65 69 76 76 76 78 76 77 81 80 81 85 82 81 79 75 72 71 69 67 69 69 66 67 68 66 65 69 66 66 69 70 72 71 71 75 71 75 73 71
59 50 45 43 44 48 51 52 52 57 63 71 74 71 70 66 58 69 74 76 75 75 77 73 70 72 70 69 71 69 68 71 68 68 65 60 68 66 68 70 71 71 72 69 69 70 69 69 68
56 47 41 35 38 41 46 48 50 53 54 59 63 61 65 68 67 71 70 71 63 57 59 69 63 65 68 69 70 67 66 63 65 66 64 62 64 67 69 68 66 66 66 64 62 64 63 57 60
53 44 36 32 29 33 38 45 46 50 48 52 54 53 57 62 66 67 71 66 58 31 31 38 44 49 55 60 61 62 62 62 59 58 58 59 61 61 60 59 58 58 60 55 57 56 59 58 59
52 44 35 28 24 23 27 36 40 45 43 49 45 54 53 53 59 57 64 63 51 54 41 37 30 33 36 42 43 46 49 49 52 53 54 55 55 57 58 56 51 55 55 55 54 56 54 57 53
48 41 31 25 22 21 24 29 34 41 46 48 49 53 52 50 51 54 57 63 53 43 48 54 32 27 29 41 41 44 48 49 47 45 46 52 51 49 43 49 52 55 51 48 51 51 53 52 53
44 34 25 25 19 20 22 29 34 41 43 45 48 49 45 38 38 49 55 58 53 53 55 56 48 45 41 39 46 46 54 50 45 39 42 40 42 44 48 53 57 57 49 47 50 55 50 53 59
41 28 26 18 14 15 21 27 33 37 42 42 42 44 47 49 45 46 45 43 35 44 52 51 42 53 58 50 48 51 50 51 51 49 41 47 41 46 53 59 58 59 56 51 54 46 53 56 55
37 25 20 13 10 13 18 22 29 33 39 43 46 45 47 47 50 49 45 39 32 39 43 53 58 55 59 54 56 49 50 52 50 45 49 48 44 51 57 65 59 57 51 55 49 51 49 49 62
31 21 13 6 8 12 18 22 25 31 36 41 42 48 42 40 45 43 42 38 35 33 44 51 58 51 56 56 57 58 60 54 46 43 56 60 52 51 49 48 59 46 55 57 49 51 61 69 67
24 15 8 6 6 13 15 22 28 31 36 41 41 46 45 39 38 37 37 38 32 37 48 56 60 58 66 62 59 57 60 54 57 54 54 59 51 58 51 51 47 49 49 51 62 60 59 68 75
20 12 5 7 14 15 12 17 25 26 29 36 38 40 40 39 36 33 32 32 32 37 46 53 56 67 60 64 61 63 63 61 57 56 53 54 53 55 50 47 44 48 55 60 67 70 71 72 78
15 15 5 9 13 13 14 14 17 19 20 24 34 31 32 32 30 29 33 29 27 32 41 44 58 68 63 63 58 58 63 59 58 58 56 48 41 43 46 53 56 63 67 71 75 79 78 72 73
14 9 5 7 12 17 15 16 21 14 14 21 24 28 23 19 22 27 24 28 27 34 36 38 47 59 64 58 59 57 60 58 50 46 45 51 46 51 62 56 53 59 66 73 74 74 76 76 82
12 8 7 5 5 5 4 4 10 14 15 19 21 25 24 22 18 22 25 24 25 31 35 35 41 45 55 54 53 57 56 51 47 49 59 50 55 59 59 62 68 74 76 71 77 78 80 80 73
11 6 4 1 3 5 9 6 10 19 20 18 14 13 13 15 19 25 26 24 24 28 33 35 35 38 45 52 51 54 54 59 58 58 57 54 58 58 62 69 73 71 73 78 78 76 71 71 69
7 6 7 5 3 8 7 5 11 20 24 19 19 18 17 12 19 17 16 19 25 27 26 29 34 38 40 48 43 41 43 47 55 67 66 68 71 75 71 70 72 73 75 72 74 69 67 65 65
8 5 7 7 8 9 8 8 14 15 22 22 23 22 19 24 24 23 22 20 19 20 24 24 31 33 38 40 44 44 43 46 51 55 62 60 62 64 68 68 68 69 71 71 68 68 66 67 70
11 3 5 6 7 9 11 9 14 14 18 21 26 25 20 22 28 31 28 27 26 24 29 30 31 33 36 37 38 39 41 44 49 51 54 57 54 58 57 62 64 66 65 63 64 65 67 69 73
22 10 4 6 8 12 10 11 10 12 13 16 16 24 30 29 30 27 28 28 32 33 36 35 39 33 34 37 40 44 47 46 47 51 54 53 56 57 62 63 63 61 62 64 65 66 68 72 75
27 15 8 8 9 9 10 11 14 16 13 13 16 21 25 30 34 34 37 38 30 30 30 31 29 30 34 38 41 41 45 48 50 52 55 59 61 59 59 58 57 61 66 67 67 70 74 76 79
26 21 13 9 9 9 10 11 12 16 18 17 15 14 16 21 23 24 25 26 23 26 27 28 31 33 36 37 42 45 45 47 51 53 52 51 53 56 55 56 59 67 68 68 72 74 76 79 79
27 20 17 13 11 10 16 18 17 18 16 18 19 19 16 18 18 19 20 23 25 28 28 29 31 33 36 37 41 43 45 45 43 40 44 48 53 55 56 59 65 69 70 75 75 77 78 79 82
32 20 20 19 17 14 17 21 20 19 18 18 17 17 17 17 18 20 22 24 27 28 29 32 35 37 38 40 39 38 38 36 35 39 45 52 56 59 61 63 68 71 74 73 74 78 79 82 86
35 19 17 18 17 18 19 21 22 21 19 20 22 23 24 24 25 25 25 27 30 31 34 36 37 39 39 37 36 33 31 34 40 44 50 54 61 62 62 65 71 74 76 75 76 77 82 86 89
31 24 16 16 17 19 21 24 24 24 23 24 24 25 28 30 29 28 30 31 33 33 36 38 38 35 33 31 31 31 34 39 43 46 52 60 63 65 66 71 78 78 77 79 78 82 86 89 92
38 28 22 17 20 22 23 26 29 26 25 24 24 26 27 28 31 31 33 34 35 38 36 32 31 30 29 30 28 31 35 39 43 49 57 61 65 68 73 77 81 80 79 83 86 87 91 94 97
40 32 27 22 23 25 28 33 30 28 29 28 27 27 29 31 32 34 36 36 37 34 33 32 32 30 30 31 32 34 38 43 48 56 57 59 65 72 76 79 82 83 84 86 91 93 95 98 100

GFSSGP_250_spd_054.txt.gz
Wind_Speed
62 70 69 65 61 59 57 55 51 55 62 68 76 76 79 86 84 87 88 88 87 84 83 83 81 80 79 78 74 74 73 72 71 72 73 73 73 73 74 74 73 72 71 71 72 72 72 72 72
66 72 68 63 59 56 55 50 49 52 59 67 72 77 79 76 81 84 84 91 88 86 84 82 81 81 80 78 77 74 73 74 73 74 75 74 73 73 73 73 74 71 71 71 71 72 73 71 72
71 77 67 61 56 51 53 49 52 53 57 61 67 72 76 68 78 77 82 81 83 74 85 78 79 80 78 76 77 76 74 73 74 77 76 74 74 75 73 71 71 69 69 71 70 72 72 72 73
76 78 68 58 51 48 49 48 51 52 55 57 59 66 72 76 74 70 72 77 79 67 70 67 76 78 79 80 76 74 73 75 74 74 73 75 74 74 72 70 70 69 69 68 71 71 70 71 70
81 77 65 54 49 45 42 39 43 48 52 54 53 57 65 69 68 72 64 63 59 62 54 51 56 65 75 78 78 75 76 70 69 69 69 70 71 67 68 67 66 68 67 68 69 66 67 67 65
81 76 58 53 46 40 34 33 38 43 45 49 50 51 58 61 65 59 57 54 41 44 48 52 46 47 53 65 70 69 67 65 67 68 65 64 65 63 63 62 62 62 63 64 62 59 61 61 59
84 65 54 48 40 34 30 31 34 37 42 44 46 47 48 52 58 63 60 55 50 35 14 29 30 42 39 41 44 53 57 57 55 55 58 56 50 50 52 55 55 56 57 56 59 59 58 58 55
82 56 51 43 34 30 28 29 33 36 38 41 44 45 46 50 52 51 56 56 50 42 41 35 37 39 38 32 36 38 41 41 39 40 42 46 46 46 51 51 53 54 53 50 50 53 57 59 58
70 54 49 41 35 31 27 27 31 33 37 40 42 46 50 54 53 47 52 58 55 53 56 54 56 49 45 37 42 37 36 35 30 37 42 50 51 48 43 44 46 45 45 54 54 57 56 57 57
63 54 45 35 31 25 23 24 25 30 35 35 41 46 48 48 45 48 48 51 52 58 67 63 64 59 49 48 38 28 37 37 42 39 44 48 52 52 46 47 41 48 47 53 57 57 58 59 54
61 52 39 29 24 22 19 19 22 27 35 36 36 40 43 41 45 43 49 51 52 54 64 71 68 61 48 49 41 44 42 45 45 51 49 53 51 54 54 48 50 47 51 45 46 53 49 47 50
59 50 33 27 22 19 15 15 18 23 32 38 40 40 43 47 44 45 47 45 45 51 58 63 61 57 59 62 55 60 59 60 53 50 52 54 53 53 52 54 54 52 50 55 53 47 48 50 48
55 48 30 19 14 9 7 10 15 21 28 35 41 39 43 47 49 43 42 45 45 42 42 53 60 64 65 61 60 66 65 58 57 55 58 61 55 52 50 53 48 58 62 60 56 50 43 54 64
51 43 26 14 6 2 5 7 14 21 29 34 45 46 43 44 41 42 41 42 41 38 40 48 54 63 69 61 61 68 63 61 65 68 66 69 64 56 54 54 59 63 56 51 47 49 61 70 66
46 36 20 9 1 2 4 3 8 16 24 32 43 46 46 38 36 32 30 33 32 36 40 47 57 69 69 70 57 60 62 63 64 71 68 66 62 61 60 58 59 60 51 50 59 61 65 72 75
42 30 14 4 3 7 10 14 14 14 18 26 34 34 33 26 24 27 25 25 29 28 30 38 43 53 73 70 65 61 64 61 57 61 63 56 59 54 57 57 50 50 56 62 67 71 74 76 80
38 24 7 5 6 5 8 12 14 16 18 21 24 27 27 22 22 22 23 24 26 25 27 27 31 36 52 69 75 56 60 61 60 54 57 57 55 55 57 60 61 61 63 68 73 72 74 77 81
38 27 10 4 3 1 3 3 16 18 18 18 12 20 21 21 18 19 20 22 22 19 29 30 31 33 43 52 63 70 65 58 55 55 59 57 53 56 56 60 66 69 71 72 76 81 81 76 72
45 30 12 7 8 3 6 8 10 13 22 18 16 18 7 22 19 22 23 20 20 18 22 30 32 35 37 43 52 52 42 44 52 58 54 54 56 60 63 67 71 69 71 72 74 70 67 71 74
50 31 17 8 7 6 9 10 10 17 20 23 22 25 23 17 11 14 15 19 26 25 27 25 23 26 33 41 41 45 46 46 45 52 57 58 60 60 60 63 67 69 68 65 66 68 72 68 65
48 28 29 10 7 7 10 10 10 14 23 24 20 22 24 21 21 23 25 23 23 22 25 26 25 24 25 26 30 39 43 43 43 46 49 49 54 55 58 61 58 61 65 68 67 67 67 63 68
45 33 27 16 7 8 12 13 13 16 16 19 19 21 22 25 23 25 24 28 28 28 28 29 27 29 35 34 33 34 36 38 40 44 45 47 49 51 54 57 61 63 67 65 67 66 64 66 70
47 38 20 22 12 10 10 11 14 13 14 15 17 16 18 29 28 28 30 32 34 35 32 34 37 34 34 35 36 39 39 40 42 45 49 50 54 58 59 61 63 63 63 64 64 64 69 71 73
43 33 19 19 17 12 10 11 13 10 15 16 16 16 17 21 24 29 32 35 35 37 35 31 29 27 30 33 38 40 44 42 44 45 47 49 52 54 55 55 57 58 60 62 67 68 73 75 77
38 32 21 17 20 16 15 14 17 16 15 21 21 19 20 17 18 22 25 25 27 28 27 28 30 31 34 35 37 37 39 41 42 43 46 47 46 46 52 53 54 59 62 62 68 72 75 78 82
33 33 26 16 18 22 22 17 18 20 19 19 21 23 25 23 21 22 22 23 25 29 33 33 34 33 35 35 36 38 38 40 44 42 42 37 39 42 59 57 59 62 63 67 71 74 79 83 88
29 31 25 20 17 19 26 25 19 22 23 22 21 20 24 24 22 22 24 25 27 30 31 33 35 36 36 39 39 38 38 38 39 39 38 42 45 48 55 60 63 67 70 72 76 80 84 86 88
27 30 29 24 20 20 25 28 22 24 26 26 25 25 25 24 25 28 30 30 32 32 32 34 36 38 39 39 39 41 41 39 37 42 46 46 46 51 56 62 67 72 74 76 82 87 86 87 92
26 31 30 26 23 24 25 28 27 25 25 27 28 26 26 26 26 26 26 29 31 32 33 35 38 40 42 38 39 42 41 41 42 45 44 46 50 55 61 66 72 75 76 82 88 88 88 89 94
25 29 28 28 28 21 27 32 30 26 27 29 31 31 31 31 31 28 29 30 33 36 38 38 40 38 38 40 41 42 42 41 42 44 48 51 56 60 66 70 72 74 80 85 88 90 91 94 97

GFSSGP_250_spd_057.txt.gz
Wind_Speed
67 67 60 59 62 63 67 65 63 59 51 42 45 63 68 69 55 41 33 75 75 87 90 88 84 86 89 85 83 81 80 79 79 78 76 76 76 77 77 77 77 76 78 76 77 78 76 76 76
70 65 63 62 64 66 64 58 55 54 34 34 52 61 67 66 61 54 66 84 75 78 85 86 86 86 84 83 83 80 80 78 78 77 79 80 80 79 82 81 81 80 78 78 77 75 76 75 74
70 65 66 69 71 65 61 53 50 48 44 47 55 58 59 62 69 73 70 78 61 74 76 81 83 85 85 80 80 79 78 77 77 80 80 80 78 81 83 81 79 80 79 79 76 78 75 73 73
69 65 69 74 74 64 58 52 48 44 44 44 43 49 51 58 66 70 81 77 66 56 63 69 71 71 72 75 78 78 79 81 79 80 81 80 78 81 82 79 79 82 81 80 76 75 74 74 73
69 65 70 74 70 60 55 51 44 39 37 41 28 2 57 55 63 65 66 70 65 56 51 51 51 59 63 58 72 75 79 77 77 82 78 76 76 78 78 80 78 77 75 73 70 69 71 71 70
64 66 70 72 64 57 51 45 40 34 15 42 33 48 71 55 61 57 56 62 34 18 29 28 42 56 62 58 60 60 63 71 74 76 75 73 74 74 71 71 72 69 67 68 66 65 66 66 66
62 66 70 68 59 52 45 39 35 25 20 22 42 50 61 58 54 49 51 37 43 42 35 28 32 45 51 47 55 55 53 56 65 64 67 64 61 64 64 64 60 60 58 61 60 59 61 61 59
63 68 69 60 53 45 40 36 35 30 25 45 55 41 40 43 46 47 52 47 56 49 47 53 33 34 26 39 45 47 47 47 48 48 54 52 54 54 51 47 46 48 52 56 58 52 54 54 58
64 70 65 55 46 39 35 34 33 30 28 30 32 32 39 43 39 44 49 47 64 64 53 58 47 48 46 51 46 42 40 38 38 40 41 46 45 42 43 46 49 49 48 51 52 55 49 53 54
64 69 60 53 46 38 31 28 27 23 25 27 27 28 37 38 42 47 49 51 66 73 60 61 51 52 53 47 46 41 38 40 39 38 33 33 34 39 42 51 45 47 50 54 51 50 53 53 59
65 68 56 51 42 33 28 25 28 18 13 36 28 26 39 40 43 48 47 51 65 69 62 66 60 54 58 48 40 41 42 43 43 38 37 41 51 49 48 46 50 55 56 54 55 56 51 54 57
64 65 52 46 36 25 23 20 19 15 43 57 31 34 38 41 42 43 47 48 55 69 74 72 71 63 59 56 40 45 47 50 47 44 55 55 58 58 54 60 59 55 49 52 54 58 60 60 62
61 64 50 41 31 21 15 10 11 11 16 22 28 35 39 43 47 47 52 51 47 57 75 71 74 69 63 60 59 56 61 55 50 58 58 61 58 54 57 62 60 59 59 57 57 55 62 66 65
58 64 48 34 22 19 14 17 11 5 10 22 33 39 41 43 46 50 50 47 48 50 65 71 69 70 70 68 69 65 63 57 59 60 64 59 54 57 60 62 60 60 59 60 61 61 66 65 65
54 60 44 22 25 11 17 10 30 8 11 25 40 40 44 46 45 45 45 38 39 48 54 56 64 70 74 72 70 65 61 61 66 65 65 63 57 62 62 66 64 63 64 65 62 57 64 65 62
50 55 39 15 14 8 13 29 24 12 15 20 41 39 42 41 37 32 32 32 35 38 46 55 59 65 65 67 67 68 70 66 65 61 66 68 62 64 68 68 67 66 65 70 69 70 68 63 66
48 49 36 18 11 6 6 21 14 8 10 17 32 41 37 28 23 23 27 30 32 36 38 38 49 51 62 71 70 73 75 76 64 57 61 58 57 60 64 66 63 66 62 62 63 63 66 68 76
45 46 37 23 17 6 5 8 18 16 15 20 24 35 32 25 27 23 23 25 27 29 32 34 43 41 50 50 63 75 79 75 74 59 62 60 56 56 59 62 62 65 65 64 65 69 74 77 77
43 46 40 26 21 15 9 10 12 21 17 18 13 15 7 16 18 20 20 18 25 26 21 26 33 37 31 31 44 47 57 61 66 48 47 66 54 64 62 61 58 61 57 64 69 71 78 77 77
40 42 38 24 20 18 13 12 14 11 16 23 21 21 13 4 16 15 19 20 17 18 18 21 28 33 35 35 36 39 41 50 58 62 55 54 50 51 55 54 55 59 66 68 69 73 74 69 71
39 39 39 22 20 17 17 14 14 9 14 20 21 20 25 21 16 11 17 21 28 27 26 25 27 29 26 31 38 43 40 42 47 49 50 50 53 56 59 60 63 67 66 65 64 67 70 71 74
37 36 37 25 17 18 14 14 13 13 16 19 21 24 26 28 29 29 31 29 28 25 24 25 32 30 27 27 29 30 33 41 46 49 51 48 49 52 53 54 54 56 60 65 70 72 72 70 68
34 36 35 29 15 17 18 14 18 17 17 18 25 24 29 31 33 31 33 29 29 30 28 30 27 30 34 34 32 35 39 41 42 44 46 50 51 50 54 58 58 59 62 65 66 66 67 69 70
33 32 30 35 16 17 19 16 16 16 15 17 17 17 17 18 31 36 33 33 33 33 34 35 38 37 35 39 40 38 37 40 42 43 46 48 50 54 55 55 57 56 56 59 61 62 67 70 71
31 30 31 34 24 14 17 19 18 17 17 19 22 21 20 20 23 27 29 34 35 35 37 37 38 39 40 33 32 35 37 41 44 47 50 50 51 52 52 52 51 41 48 59 64 67 70 72 74
30 27 28 32 28 17 18 20 19 22 20 19 20 26 25 24 24 23 25 26 28 29 30 29 29 30 32 34 36 38 43 44 45 47 50 51 50 48 49 49 48 47 55 67 70 75 76 74 77
31 26 27 28 25 21 19 19 20 25 26 26 25 26 26 26 27 28 28 28 29 29 29 32 34 36 38 39 39 37 43 46 47 50 50 50 50 52 48 51 57 60 63 68 70 72 78 81 84
34 27 27 28 25 24 19 21 23 25 29 30 29 28 27 25 25 27 28 30 30 31 32 34 35 38 39 40 41 43 47 48 47 49 48 49 52 53 53 59 62 62 65 67 71 76 83 86 89
35 27 27 27 26 24 21 21 20 24 26 30 31 33 32 31 29 28 28 30 34 34 34 33 35 38 41 42 43 45 45 47 46 47 51 51 54 57 59 62 64 65 66 71 76 80 86 89 91
36 30 29 26 30 26 19 24 19 20 25 32 33 34 37 37 35 33 32 31 30 31 31 34 36 38 40 44 45 46 46 44 44 44 51 55 59 62 62 62 63 66 72 76 81 86 88 91 94

GFSSGP_250_spd_060.txt.gz
Wind_Speed
64 66 67 68 67 65 70 69 61 67 65 54 48 53 50 55 47 44 28 43 30 56 60 66 70 75 86 89 91 88 89 88 86 83 82 81 79 79 79 78 79 79 79 80 78 77 76 78 80
64 65 67 68 67 67 67 68 61 59 49 41 41 46 42 34 32 42 41 63 43 28 47 50 62 71 80 86 91 89 84 84 85 83 83 82 81 81 80 80 81 82 82 82 82 81 81 81 81
62 64 65 64 65 65 66 63 60 52 37 30 33 32 22 6 41 37 52 69 56 44 42 43 56 62 69 79 84 84 81 82 85 84 83 83 81 82 81 81 83 83 84 82 83 82 82 81 80
60 61 62 62 62 67 62 59 57 42 33 22 28 15 19 21 28 36 43 67 68 57 52 47 39 43 52 65 79 79 78 77 76 80 82 82 83 83 82 82 82 82 81 82 82 81 81 81 79
58 61 60 60 60 64 62 57 47 34 20 20 14 15 30 40 46 46 39 50 74 64 52 41 55 43 42 45 53 63 68 75 75 78 81 81 81 80 80 79 81 81 80 81 81 82 81 80 79
53 53 58 60 66 62 57 49 32 9 8 4 10 9 39 36 39 33 39 43 78 71 49 40 40 33 31 38 38 44 52 61 63 63 66 74 78 79 76 78 81 77 77 77 77 77 76 77 73
54 54 58 62 64 56 48 38 10 6 12 7 9 16 30 27 43 40 36 36 64 65 65 52 49 35 34 20 51 44 44 46 53 56 57 60 61 64 65 67 67 66 70 71 68 70 69 66 63
53 54 56 63 60 51 39 21 2 18 8 39 23 30 41 36 46 39 47 43 46 63 67 52 57 49 27 29 36 43 48 46 50 52 53 52 53 52 57 57 58 57 56 56 58 59 57 61 61
51 52 57 63 56 47 34 13 6 16 26 30 17 33 55 58 46 44 44 37 51 60 72 63 56 55 49 48 45 33 43 37 40 35 36 40 43 45 48 48 48 50 49 46 46 53 57 53 54
48 51 56 61 56 46 30 16 6 6 17 15 17 39 47 58 63 53 47 44 55 73 72 65 63 59 55 53 60 48 47 43 37 35 30 34 36 36 36 40 41 43 45 44 47 50 47 54 58
47 50 56 60 51 41 24 15 20 26 13 13 24 32 34 55 59 62 43 49 55 75 72 61 62 62 67 57 60 57 56 44 40 39 38 35 41 39 41 42 41 44 45 47 52 50 53 57 59
46 49 55 59 49 36 15 16 23 20 31 42 36 30 33 30 45 60 48 53 59 71 68 67 63 64 64 63 61 56 47 45 46 42 41 49 45 47 41 43 52 52 58 54 57 62 64 62 55
43 48 52 57 46 33 15 28 31 26 36 37 45 51 37 33 44 47 50 51 66 77 71 71 67 69 64 64 60 52 43 43 47 48 49 48 51 53 52 56 57 57 60 61 60 63 65 63 65
42 47 51 53 41 29 6 7 7 13 20 25 31 42 32 35 46 44 44 47 59 73 76 73 68 74 67 61 61 60 54 50 51 53 50 52 56 55 55 60 63 63 64 63 63 65 66 62 62
40 46 49 48 39 24 4 8 15 10 9 31 30 27 31 42 41 43 41 43 50 63 77 74 71 72 73 67 60 60 61 59 58 57 59 51 57 57 58 62 65 69 71 70 66 65 67 66 67
39 44 46 47 35 18 15 11 7 5 12 36 26 20 38 43 41 42 43 35 37 60 73 75 73 72 70 67 68 64 64 68 64 60 60 62 62 60 60 61 60 65 60 62 61 65 63 60 62
35 41 43 45 35 21 11 14 6 13 23 24 21 32 41 39 39 39 31 30 31 38 46 59 68 69 70 67 67 71 68 67 69 65 65 61 66 65 62 62 58 56 59 63 68 64 64 66 67
36 44 41 42 38 20 16 15 17 12 22 31 21 38 42 34 25 28 22 26 30 40 42 47 51 61 67 66 69 72 73 73 73 70 69 68 64 66 65 58 61 63 66 62 62 66 67 65 69
37 41 41 42 42 19 18 21 14 12 11 22 26 17 28 36 33 23 25 24 29 33 38 40 46 53 61 65 65 66 70 72 78 73 74 72 74 72 58 68 61 64 64 64 67 67 62 65 70
36 42 41 38 41 31 16 21 19 16 28 32 26 18 17 7 13 24 23 24 27 29 32 32 38 44 49 52 64 62 58 63 67 61 61 63 57 56 53 49 54 60 64 72 65 66 68 71 75
38 39 38 35 37 34 18 19 21 19 17 20 28 20 17 8 12 14 15 17 13 15 23 24 21 20 31 40 42 42 37 42 45 49 49 46 55 62 60 63 59 57 64 62 65 65 67 72 74
39 37 38 32 38 38 24 15 19 17 16 19 18 24 20 20 18 17 15 23 23 25 24 23 23 23 24 28 31 30 36 44 45 43 45 49 53 51 52 53 55 57 60 62 68 65 68 72 73
39 36 37 34 35 39 29 17 18 20 21 20 23 23 22 28 25 27 25 22 24 25 29 34 31 30 33 34 29 28 32 34 35 38 42 46 47 49 53 57 58 58 59 59 61 65 71 73 75
37 37 37 35 32 39 30 22 18 22 21 20 21 25 30 28 31 34 36 32 30 33 31 31 30 33 33 33 35 35 36 39 40 42 41 46 50 51 53 54 57 59 61 63 67 65 70 73 74
34 38 35 35 31 34 33 27 16 21 24 17 18 19 19 17 25 32 37 40 41 38 39 35 35 34 37 36 38 41 44 42 39 39 40 46 49 52 54 56 60 62 64 66 68 68 69 72 71
33 38 32 35 33 33 35 32 21 20 23 22 24 23 26 25 25 26 27 30 33 34 37 41 40 38 39 38 36 36 38 39 38 43 38 39 39 48 51 58 62 64 66 66 67 66 67 68 76
35 39 34 35 33 30 33 35 30 24 21 26 26 26 25 31 32 30 30 29 30 30 31 32 31 31 30 32 33 35 37 40 42 44 48 51 51 54 58 65 65 60 62 64 66 68 70 74 79
33 39 35 34 35 27 30 34 27 23 23 25 24 30 31 31 33 33 32 31 31 31 32 33 34 35 36 36 37 37 22 45 43 45 50 46 52 54 57 61 63 64 64 67 69 71 75 78 77
37 39 37 35 36 29 31 33 34 28 21 29 23 27 31 34 35 35 35 32 31 32 35 37 36 37 37 36 35 36 39 42 37 44 50 53 57 62 64 61 61 65 68 71 75 77 79 81 81
39 39 39 37 37 32 29 32 27 25 26 26 29 30 31 32 32 38 39 38 35 34 31 32 34 31 30 30 33 35 36 39 42 46 53 57 58 57 56 58 62 66 71 75 79 81 81 82 85

GFSSGP_250_spd_063.txt.gz
Wind_Speed
68 69 67 69 68 66 68 67 68 68 70 63 61 55 57 56 50 42 41 37 40 41 35 33 29 48 57 57 62 69 80 86 88 87 86 84 83 83 82 80 79 79 80 79 79 78 77 78 78
66 68 66 66 64 63 66 68 69 70 62 54 51 47 48 38 34 24 24 13 25 39 35 29 21 52 53 52 57 61 67 67 83 87 84 84 83 83 82 82 81 80 81 81 81 82 81 81 81
65 66 63 59 55 57 59 65 65 62 53 41 41 34 34 24 27 26 21 22 26 46 46 50 52 54 50 41 53 62 61 64 69 78 82 81 81 82 84 83 82 82 81 83 82 82 83 83 83
57 58 54 51 52 50 56 62 58 49 47 37 32 28 26 30 37 36 37 31 29 47 51 51 55 58 32 34 30 30 46 53 61 68 74 77 77 80 82 82 82 81 82 82 82 82 81 82 83
49 47 49 47 48 52 59 57 50 45 32 22 22 27 33 34 36 43 35 22 31 44 51 28 38 31 37 32 30 35 38 37 43 47 62 66 71 71 74 76 79 80 80 82 79 81 80 79 81
45 47 46 47 46 54 55 54 43 28 10 14 20 30 36 34 32 39 32 30 18 48 43 26 24 30 33 37 35 30 35 37 32 36 44 57 64 66 70 68 72 74 76 76 77 78 77 78 79
42 46 47 45 47 54 54 47 31 13 27 22 25 21 33 44 43 39 38 42 31 42 53 37 30 46 37 37 42 43 38 34 30 32 38 43 48 51 56 53 57 57 59 63 66 67 71 72 71
43 47 46 44 47 53 48 37 18 28 33 31 32 18 22 34 37 35 33 30 34 51 52 52 44 55 31 31 52 36 42 44 34 33 35 40 40 44 48 48 47 49 53 56 57 60 60 62 62
45 46 45 42 47 49 43 23 29 35 35 24 23 25 22 30 36 45 43 35 34 62 57 54 62 54 62 43 43 66 44 50 44 40 37 35 37 39 40 41 44 45 46 51 52 49 48 48 48
45 43 44 42 45 47 32 15 5 31 17 19 23 22 28 35 37 35 47 46 39 55 65 57 76 68 70 67 54 56 50 44 44 46 37 34 32 30 30 33 36 41 42 43 47 51 52 50 48
42 41 41 40 44 40 22 24 20 15 25 22 15 33 32 35 32 40 52 49 38 46 70 73 63 62 61 62 62 57 58 52 50 50 36 37 37 34 34 34 35 40 44 47 50 52 55 50 45
34 37 38 42 43 29 8 14 11 2 6 4 14 20 37 35 23 32 54 48 42 42 59 79 77 69 66 68 68 63 60 60 52 44 38 40 40 40 39 37 40 45 48 53 52 50 49 50 53
32 34 38 41 42 33 15 22 19 11 3 10 13 20 23 36 38 31 37 50 59 60 53 76 80 67 64 72 72 69 67 66 60 54 48 52 49 47 47 43 46 49 52 52 49 51 52 53 60
35 32 37 39 39 37 12 31 21 10 2 5 16 23 24 29 27 26 31 47 60 54 56 77 83 84 73 72 69 71 67 64 64 62 59 58 58 57 57 47 49 53 54 54 57 56 58 65 63
33 35 38 38 38 37 16 16 32 17 8 13 7 21 23 32 24 26 27 30 38 53 55 71 72 78 69 68 68 73 69 68 67 62 62 60 59 56 57 55 53 55 55 56 57 62 60 65 67
31 34 40 39 39 35 14 16 18 12 10 9 7 16 21 33 25 22 21 23 32 45 60 76 72 81 73 68 67 74 76 64 66 68 68 60 60 60 55 54 55 55 56 58 56 60 61 59 60
27 35 39 36 36 34 27 17 17 11 16 13 21 27 30 35 28 25 24 24 29 40 48 58 65 67 69 73 72 72 72 66 62 67 68 67 62 60 58 58 61 64 66 66 66 65 64 66 64
26 31 37 38 39 34 37 17 19 15 10 22 19 22 25 28 29 28 27 26 24 27 34 41 55 62 65 70 71 73 72 74 69 65 61 61 65 67 65 67 69 66 63 63 63 62 67 68 70
25 31 35 37 39 36 37 35 19 22 29 27 29 18 23 24 32 28 30 25 21 28 34 39 44 52 60 69 74 68 73 70 72 68 66 66 66 66 68 69 71 73 73 70 63 65 69 71 73
25 27 35 33 35 37 37 35 22 15 16 23 24 27 26 18 22 32 36 31 25 28 36 41 43 45 48 52 68 70 74 74 70 69 71 73 72 73 73 75 71 66 67 62 61 57 57 66 66
34 26 35 37 33 37 39 41 29 15 12 23 29 30 23 20 9 12 14 23 27 26 27 31 38 44 51 57 65 65 71 73 73 70 65 61 64 67 68 64 56 59 64 62 66 71 70 70 71
41 26 33 36 33 37 36 39 36 24 15 13 19 23 22 18 15 13 14 14 17 16 13 23 29 35 39 45 49 54 56 56 55 52 46 48 51 52 56 58 62 68 67 63 62 63 63 65 69
35 26 28 36 34 33 35 33 39 25 17 18 16 19 13 24 20 19 23 20 18 22 21 23 21 24 24 24 26 31 36 41 40 42 45 50 51 46 48 49 54 56 57 58 60 62 66 66 67
30 27 24 33 37 30 35 33 37 33 23 13 13 20 23 18 25 30 27 26 25 26 27 26 26 30 32 31 32 35 42 40 35 37 39 41 44 46 50 52 55 58 59 59 60 62 65 69 72
36 29 29 29 35 32 34 31 32 32 26 13 15 10 26 29 27 36 36 34 34 31 32 35 34 33 31 31 39 38 36 37 38 40 43 45 48 49 48 50 55 58 60 62 62 65 67 71 74
39 37 32 29 35 37 32 32 28 34 34 22 17 16 19 24 24 22 31 26 38 42 40 41 38 37 38 39 38 37 39 41 40 43 45 46 44 48 48 50 56 59 58 59 64 67 70 73 72
40 32 34 31 34 37 29 31 30 30 32 29 21 17 21 27 30 28 27 28 30 34 32 30 32 35 33 35 40 41 40 40 43 42 39 38 43 50 47 45 52 57 59 63 66 67 74 72 72
42 47 34 29 31 36 32 29 36 30 30 31 25 23 22 22 28 28 29 34 34 31 30 32 32 34 32 27 28 29 30 29 30 29 35 33 24 37 46 45 53 58 64 70 72 74 75 74 75
43 48 41 36 32 35 38 27 31 27 29 31 29 27 26 30 28 25 30 30 30 27 26 26 21 18 24 25 30 28 26 25 22 25 28 31 47 50 57 59 65 71 72 72 72 72 72 74 77
46 48 48 39 40 30 39 29 32 31 28 30 33 27 31 32 30 32 28 25 28 29 28 23 8 13 24 25 26 21 17 39 22 33 38 43 51 60 66 69 72 74 74 75 75 75 76 74 76

GFSSGP_250_spd_066.txt.gz
Wind_Speed
58 59 62 68 70 72 74 74 70 67 66 66 66 69 68 62 60 55 49 55 54 51 47 47 56 53 48 45 42 44 47 54 59 63 70 80 81 82 85 86 82 86 83 83 80 79 78 78 78
56 63 68 67 64 61 63 64 63 65 66 63 61 60 59 55 53 47 49 47 40 40 41 45 47 36 27 33 38 39 37 45 55 61 58 60 67 77 78 82 81 80 84 83 82 80 80 80 81
63 63 59 56 58 57 57 57 57 62 67 59 55 55 48 47 46 46 42 39 37 38 40 33 36 39 27 27 44 28 31 43 44 54 56 57 61 61 70 77 82 82 83 83 83 82 81 81 82
60 59 52 52 51 53 52 53 57 61 63 56 51 47 40 39 41 35 31 35 39 42 42 40 35 29 22 37 32 29 37 38 33 37 49 53 53 61 61 66 75 78 79 80 81 81 78 82 80
52 46 47 48 51 53 51 54 60 65 52 48 42 32 28 27 33 32 44 44 46 41 46 42 25 35 19 31 28 35 37 38 38 29 28 36 44 53 59 60 64 71 75 75 75 74 76 77 79
44 46 49 49 52 52 49 55 56 56 44 39 31 23 21 26 33 46 42 39 46 51 58 31 28 21 30 33 38 42 42 42 40 34 42 40 37 41 46 48 52 58 66 70 70 67 65 68 74
43 45 47 47 50 47 52 53 51 44 27 22 22 29 35 42 50 53 42 43 56 63 53 37 16 30 35 29 47 49 51 51 45 43 43 41 31 32 39 45 43 47 51 56 59 59 59 58 67
37 38 37 45 45 44 51 49 47 30 24 22 29 33 38 47 54 54 43 48 59 58 54 47 49 48 60 54 48 48 54 54 46 36 37 32 30 32 36 35 35 39 43 46 48 51 52 49 56
38 36 38 42 41 42 47 44 35 19 36 30 33 39 46 47 54 61 52 47 58 57 63 60 56 57 68 64 53 54 52 41 44 46 39 44 41 37 36 35 36 39 42 45 44 46 46 47 51
37 35 37 35 35 42 42 22 21 24 37 32 28 27 40 44 53 55 56 50 41 58 67 65 64 61 65 77 60 51 59 55 44 47 50 44 41 42 40 36 38 40 39 37 38 40 43 42 47
44 34 35 34 34 40 29 10 5 26 35 34 31 24 32 38 50 52 47 46 50 59 67 69 69 75 73 71 63 55 61 58 55 44 50 38 41 40 39 40 42 42 42 39 38 39 40 42 42
37 38 36 30 34 38 37 20 18 34 37 35 33 35 31 32 54 51 53 50 51 60 72 75 74 72 65 64 68 59 76 79 61 54 48 46 43 48 49 47 46 42 39 42 41 42 42 43 45
45 43 33 28 34 39 38 26 29 19 36 38 36 37 25 35 38 48 48 48 53 60 68 80 72 74 72 59 65 62 67 68 62 63 61 54 53 57 53 54 49 46 48 49 46 45 48 49 49
43 44 32 27 34 38 37 34 26 32 35 31 30 34 40 22 22 42 47 53 51 57 70 76 75 78 71 81 75 61 70 72 67 66 62 58 58 58 56 51 52 52 54 56 55 50 53 55 54
40 42 33 27 32 36 36 40 27 24 32 28 31 44 31 31 14 21 42 39 51 57 58 77 77 75 78 82 84 73 69 71 72 67 65 60 61 64 63 63 60 61 60 59 57 56 56 56 58
40 38 34 31 29 34 36 37 34 26 26 39 39 30 19 22 27 17 23 34 42 56 61 63 71 79 76 81 74 76 73 72 71 67 68 68 66 68 67 69 66 64 63 61 62 59 61 60 66
43 33 38 32 28 34 36 37 38 27 31 34 27 25 23 23 23 24 14 20 31 47 61 66 64 60 73 85 82 78 72 71 69 72 67 70 70 65 63 66 65 66 67 67 64 61 63 64 69
44 37 37 33 27 32 33 34 39 32 31 33 32 27 30 22 19 23 16 12 16 25 32 42 52 61 58 64 81 86 81 73 78 74 68 68 68 69 67 67 70 70 71 70 68 70 72 76 73
37 38 34 33 25 28 35 34 36 35 25 34 36 34 34 30 22 24 19 12 17 16 16 19 26 41 45 55 63 81 82 76 70 71 65 71 70 65 68 69 71 71 70 73 76 73 77 75 77
42 39 32 41 24 28 32 34 32 39 30 24 35 33 32 28 28 26 22 21 19 22 22 25 27 31 35 40 45 63 71 73 68 65 72 69 73 74 73 73 72 73 73 74 75 76 77 71 64
40 38 34 28 24 25 29 32 35 34 34 23 23 26 28 30 28 24 15 16 21 23 25 28 30 35 39 44 41 45 56 58 55 62 72 70 74 77 81 80 79 76 72 66 67 58 61 61 64
40 34 29 34 25 26 27 31 33 31 35 27 21 21 24 26 18 16 10 9 11 19 20 20 17 27 30 30 35 38 41 46 47 55 62 63 68 74 75 76 71 67 69 66 62 63 62 66 66
45 36 32 29 25 28 28 31 33 32 33 33 21 19 19 22 19 12 9 9 12 13 13 13 8 9 18 20 23 26 30 31 35 38 44 52 60 60 58 61 56 58 55 56 58 57 60 63 63
47 42 33 31 30 28 25 27 31 33 28 29 24 20 17 18 23 19 18 18 17 16 16 16 14 15 18 22 24 24 25 26 31 34 37 41 41 43 44 45 49 53 56 58 58 58 60 60 62
50 45 39 32 33 30 30 27 32 33 31 29 28 20 15 17 24 25 15 21 22 25 20 21 18 20 23 23 24 27 31 34 38 37 38 37 39 42 46 51 57 61 61 59 60 59 60 60 63
50 49 41 35 33 30 32 26 31 29 29 27 30 27 21 12 20 25 31 23 21 24 32 24 23 25 29 31 31 31 35 38 40 41 42 43 45 46 49 55 57 62 66 68 64 61 59 57 59
52 48 45 40 33 28 33 28 27 26 26 26 26 30 26 23 21 19 23 21 20 23 26 32 31 31 29 33 37 40 40 37 36 37 38 39 44 44 46 51 51 47 48 49 48 53 58 65 71
50 52 47 39 33 29 34 31 27 27 23 25 23 26 29 21 18 24 26 24 28 27 29 30 24 23 25 27 27 27 27 24 28 28 32 29 33 39 43 43 48 53 59 60 62 67 69 73 79
53 54 53 45 39 35 36 33 29 23 23 22 26 22 27 26 23 21 24 28 28 31 32 29 26 21 17 17 17 15 20 22 21 20 23 25 37 38 47 50 58 60 60 64 69 71 75 81 84
58 54 55 48 39 40 37 38 32 24 28 22 24 23 23 24 22 18 18 23 29 25 28 26 23 19 16 17 16 18 17 20 21 27 27 28 44 60 56 55 53 60 68 69 75 79 83 86 89

GFSSGP_250_spd_069.txt.gz
Wind_Speed
56 54 57 62 62 66 71 72 69 66 67 66 67 71 71 69 73 75 71 63 64 63 63 62 57 57 54 59 58 62 62 64 63 62 63 65 66 75 80 80 83 87 86 84 84 84 84 85 81
54 56 59 60 66 69 69 66 62 62 61 63 65 69 68 66 68 67 64 59 58 60 60 60 54 49 55 54 59 48 38 35 31 37 40 48 49 55 59 66 74 78 83 84 86 87 86 85 84
57 59 62 65 64 64 62 58 58 57 62 67 67 68 65 61 59 57 57 54 56 55 54 53 47 49 51 55 55 50 33 26 23 27 29 31 41 49 55 62 62 60 63 73 81 85 86 86 82
58 62 61 59 54 53 54 57 56 58 61 63 66 61 54 50 49 47 46 42 47 48 46 40 40 32 35 39 37 35 35 25 22 24 27 33 34 37 42 51 55 53 51 57 60 70 79 80 82
53 48 48 48 44 49 55 56 53 57 58 58 68 62 53 43 38 36 37 35 38 41 34 37 33 34 34 33 36 30 21 29 29 31 32 27 35 34 28 38 48 52 51 54 56 59 63 67 74
37 42 44 45 47 48 50 51 53 56 57 60 65 57 42 29 29 27 26 26 27 27 26 29 30 33 32 19 14 38 34 34 33 38 41 40 42 41 45 41 37 42 43 43 50 54 55 56 61
36 45 40 43 45 47 46 46 50 53 51 52 50 47 33 21 25 20 19 25 31 31 37 37 36 33 27 27 25 27 35 37 35 44 46 43 46 48 46 47 42 35 31 34 41 44 45 48 51
37 40 41 43 45 43 39 39 52 46 40 44 35 34 28 20 22 28 30 32 38 52 51 52 50 41 41 34 33 35 31 34 36 45 44 45 46 44 40 38 35 39 35 34 38 42 43 48 45
40 40 36 43 40 38 36 37 52 44 37 29 30 29 23 21 31 39 38 45 55 57 57 55 55 54 49 45 51 45 37 49 47 43 46 39 36 42 40 40 40 37 37 35 38 45 44 42 43
37 41 39 43 38 37 35 37 44 44 37 28 26 23 23 25 35 45 39 54 62 58 58 61 53 51 48 49 48 45 41 51 55 45 41 45 43 40 41 43 44 48 46 37 33 38 40 35 34
33 36 38 39 38 33 32 37 38 40 35 28 28 28 30 31 37 48 46 58 64 62 60 61 51 53 47 51 61 56 55 67 54 47 42 44 44 48 45 43 43 46 43 39 36 42 39 41 41
31 37 41 39 41 33 30 36 38 37 30 28 30 29 30 30 40 49 48 60 64 64 59 59 59 57 57 56 66 68 64 68 54 53 54 49 41 42 41 47 52 44 44 44 46 43 50 50 48
33 37 40 38 40 36 30 32 39 34 27 24 25 37 33 28 35 46 54 58 63 56 64 61 61 60 63 66 62 57 73 81 63 58 63 59 48 49 41 44 47 51 49 49 48 46 52 52 53
32 37 40 37 39 39 28 31 39 39 26 30 27 30 41 41 37 43 58 61 67 63 61 63 63 62 62 63 67 61 67 66 68 67 58 53 46 47 48 48 50 53 51 52 51 50 51 55 57
34 38 38 38 37 41 31 29 33 41 37 26 21 35 34 29 32 40 57 63 61 58 63 68 67 64 61 62 64 54 63 50 43 56 71 67 62 56 57 60 61 59 55 51 54 54 57 55 54
33 36 39 38 36 39 34 32 33 41 39 34 24 22 31 33 36 39 45 62 72 62 62 69 71 73 70 72 68 65 56 50 56 63 68 66 68 71 65 63 61 61 59 59 61 59 58 56 61
32 36 36 34 37 37 39 35 31 37 41 36 28 25 29 30 25 32 42 42 59 68 60 65 74 75 78 71 75 72 69 63 61 60 65 65 59 63 67 70 69 66 64 62 60 61 60 61 64
34 36 33 35 38 39 39 34 30 35 42 36 27 26 29 30 28 24 20 19 43 61 64 64 67 82 83 82 82 77 73 72 70 69 71 72 69 65 64 63 68 69 60 64 60 62 63 63 66
31 31 33 32 35 33 37 30 31 33 40 37 30 22 26 35 40 35 27 16 22 39 54 57 68 77 83 87 82 81 82 78 76 74 72 72 68 75 73 69 61 61 64 71 72 72 68 68 70
32 32 31 31 33 33 32 39 32 32 35 37 33 25 23 27 35 28 19 16 16 28 41 56 60 75 82 82 82 81 81 81 77 81 78 78 77 76 73 72 74 67 68 70 70 71 71 71 76
34 34 33 35 33 34 31 38 31 33 33 37 34 28 20 22 23 22 21 19 16 26 27 35 51 74 76 86 80 79 75 78 77 79 80 83 77 85 79 72 70 75 75 75 75 75 76 71 62
36 34 36 39 35 37 31 39 34 32 35 35 36 31 22 20 21 13 16 11 14 21 27 28 33 46 61 78 75 79 77 83 74 77 83 87 75 78 81 81 78 75 72 62 59 62 63 58 56
42 37 37 41 41 36 34 32 35 30 34 33 34 30 22 20 20 13 15 15 12 11 16 22 24 32 34 41 47 50 54 62 57 54 56 59 58 66 66 58 49 57 54 59 54 55 54 51 52
45 43 43 43 41 41 35 31 34 29 33 34 31 27 24 17 20 16 17 17 15 14 15 22 23 25 27 34 31 35 37 35 36 38 40 41 44 44 42 43 41 44 49 51 52 53 53 57 61
41 43 42 40 41 44 37 31 34 30 30 35 29 26 24 21 15 16 18 15 20 20 19 19 22 22 20 19 18 20 23 25 27 27 31 32 32 34 38 41 43 46 48 48 50 50 53 58 61
50 48 41 43 48 45 39 32 25 26 30 34 29 26 25 28 24 17 21 23 24 24 27 27 21 23 24 25 28 28 28 28 29 30 32 36 39 40 41 39 40 41 39 44 56 53 51 53 53
50 43 50 50 44 46 38 29 28 31 30 30 31 29 27 25 25 20 14 20 22 22 22 21 24 29 25 27 26 27 30 30 32 33 31 28 29 31 34 34 35 39 43 43 46 51 54 54 58
54 54 52 52 45 43 40 34 33 29 28 29 29 28 28 27 26 21 16 16 16 22 24 23 26 26 29 31 30 29 25 24 25 26 27 28 31 30 30 34 42 45 51 51 56 61 67 68 67
61 58 54 52 48 43 42 38 32 25 28 29 29 27 26 27 28 27 22 14 14 19 23 24 26 24 25 26 25 23 23 23 20 20 24 29 22 24 24 31 38 57 54 54 61 65 65 68 70
66 62 60 55 53 44 43 40 36 33 32 29 31 29 26 23 25 27 28 20 16 13 21 25 26 30 29 29 28 29 28 26 24 25 24 28 29 36 36 40 44 53 59 66 74 65 70 72 77